Wetterdaten: Dienstag, 12.07.2016
Datum Zeit Temp. A. Feuchte A. Luftdruck Regen Wind Richtung Richtung Sonnenschein ET UV Solar Taupunkt Windchill Windben Empfang
12.07.2016 00:00 20,1 C 95 % 1012,3 hPa 0,0 l/m 1,3 km/h (1 Bft) S-SO 163 0 min 0,000 mm 0,0 UV-I 0 W/m 19,3 C 20,1 C 3,2 km/h (1 Bft) 100,00 %
12.07.2016 00:02 20,1 C 95 % 1012,5 hPa 0,0 l/m 0,0 km/h (0 Bft) S-SO 163 0 min 0,000 mm 0,0 UV-I 0 W/m 19,3 C 20,1 C 0,0 km/h (0 Bft) 100,00 %
12.07.2016 00:04 20,1 C 95 % 1012,5 hPa 0,0 l/m 3,1 km/h (1 Bft) S-SO 163 0 min 0,000 mm 0,0 UV-I 0 W/m 19,3 C 20,1 C 6,4 km/h (2 Bft) 100,00 %
12.07.2016 00:06 20,1 C 95 % 1012,3 hPa 0,0 l/m 2,3 km/h (1 Bft) S-SO 163 0 min 0,000 mm 0,0 UV-I 0 W/m 19,3 C 20,1 C 3,2 km/h (1 Bft) 98,31 %
12.07.2016 00:08 20,1 C 95 % 1012,4 hPa 0,0 l/m 2,1 km/h (1 Bft) S-SO 163 0 min 0,000 mm 0,0 UV-I 0 W/m 19,3 C 20,1 C 3,2 km/h (1 Bft) 100,00 %
12.07.2016 00:10 20,1 C 95 % 1012,3 hPa 0,0 l/m 0,4 km/h (0 Bft) S-SO 163 0 min 0,000 mm 0,0 UV-I 0 W/m 19,3 C 20,1 C 1,6 km/h (1 Bft) 100,00 %
12.07.2016 00:12 20,1 C 96 % 1012,3 hPa 0,0 l/m 0,0 km/h (0 Bft) S-SO 163 0 min 0,000 mm 0,0 UV-I 0 W/m 19,4 C 20,1 C 0,0 km/h (0 Bft) 97,92 %
12.07.2016 00:14 20,1 C 96 % 1012,4 hPa 0,0 l/m 0,0 km/h (0 Bft) S-SO 163 0 min 0,000 mm 0,0 UV-I 0 W/m 19,4 C 20,1 C 0,0 km/h (0 Bft) 100,00 %
12.07.2016 00:16 20,1 C 96 % 1012,3 hPa 0,0 l/m 0,0 km/h (0 Bft) S-SO 163 0 min 0,000 mm 0,0 UV-I 0 W/m 19,4 C 20,1 C 1,6 km/h (1 Bft) 100,00 %
12.07.2016 00:18 20,1 C 96 % 1012,2 hPa 0,0 l/m 2,2 km/h (1 Bft) S-SO 149 0 min 0,000 mm 0,0 UV-I 0 W/m 19,4 C 20,1 C 4,8 km/h (1 Bft) 100,00 %
12.07.2016 00:20 20,1 C 96 % 1012,2 hPa 0,0 l/m 3,8 km/h (1 Bft) SO 143 0 min 0,000 mm 0,0 UV-I 0 W/m 19,4 C 20,1 C 4,8 km/h (1 Bft) 100,00 %
12.07.2016 00:22 20,1 C 96 % 1012,2 hPa 0,0 l/m 4,7 km/h (1 Bft) S-SO 148 0 min 0,000 mm 0,0 UV-I 0 W/m 19,4 C 20,1 C 6,4 km/h (2 Bft) 100,00 %
12.07.2016 00:24 20,1 C 96 % 1012,2 hPa 0,0 l/m 5,3 km/h (1 Bft) SO 128 0 min 0,000 mm 0,0 UV-I 0 W/m 19,4 C 20,1 C 6,4 km/h (2 Bft) 97,87 %
12.07.2016 00:26 20,1 C 96 % 1012,2 hPa 0,0 l/m 4,9 km/h (1 Bft) O-SO 123 0 min 0,000 mm 0,0 UV-I 0 W/m 19,4 C 20,1 C 6,4 km/h (2 Bft) 100,00 %
12.07.2016 00:28 20,1 C 96 % 1012,1 hPa 0,0 l/m 4,7 km/h (1 Bft) O-SO 113 0 min 0,000 mm 0,0 UV-I 0 W/m 19,4 C 20,1 C 9,7 km/h (2 Bft) 100,00 %
12.07.2016 00:30 20,1 C 96 % 1012,1 hPa 0,0 l/m 3,8 km/h (1 Bft) O 94 0 min 0,000 mm 0,0 UV-I 0 W/m 19,4 C 20,1 C 6,4 km/h (2 Bft) 100,00 %
12.07.2016 00:32 20,1 C 96 % 1012,1 hPa 0,0 l/m 1,7 km/h (1 Bft) O 94 0 min 0,000 mm 0,0 UV-I 0 W/m 19,4 C 20,1 C 3,2 km/h (1 Bft) 100,00 %
12.07.2016 00:34 20,1 C 96 % 1012,2 hPa 0,0 l/m 2,1 km/h (1 Bft) S-SO 150 0 min 0,000 mm 0,0 UV-I 0 W/m 19,4 C 20,1 C 4,8 km/h (1 Bft) 100,00 %
12.07.2016 00:36 20,1 C 96 % 1012,2 hPa 0,0 l/m 1,4 km/h (1 Bft) S 169 0 min 0,000 mm 0,0 UV-I 0 W/m 19,4 C 20,1 C 3,2 km/h (1 Bft) 100,00 %
12.07.2016 00:38 20,1 C 96 % 1012,2 hPa 0,0 l/m 0,0 km/h (0 Bft) S 169 0 min 0,000 mm 0,0 UV-I 0 W/m 19,4 C 20,1 C 0,0 km/h (0 Bft) 100,00 %
12.07.2016 00:40 20,1 C 96 % 1012,2 hPa 0,0 l/m 0,0 km/h (0 Bft) S 169 0 min 0,000 mm 0,0 UV-I 0 W/m 19,4 C 20,1 C 0,0 km/h (0 Bft) 98,00 %
12.07.2016 00:42 20,0 C 96 % 1012,2 hPa 0,0 l/m 0,2 km/h (0 Bft) S 169 0 min 0,000 mm 0,0 UV-I 0 W/m 19,3 C 20,0 C 1,6 km/h (1 Bft) 100,00 %
12.07.2016 00:44 19,9 C 96 % 1012,2 hPa 0,0 l/m 0,1 km/h (0 Bft) S 169 0 min 0,000 mm 0,0 UV-I 0 W/m 19,2 C 19,9 C 1,6 km/h (1 Bft) 100,00 %
12.07.2016 00:46 19,9 C 96 % 1012,2 hPa 0,0 l/m 0,0 km/h (0 Bft) S 169 0 min 0,000 mm 0,0 UV-I 0 W/m 19,2 C 19,9 C 0,0 km/h (0 Bft) 100,00 %
12.07.2016 00:48 19,9 C 96 % 1012,2 hPa 0,0 l/m 0,9 km/h (0 Bft) S 169 0 min 0,000 mm 0,0 UV-I 0 W/m 19,2 C 19,9 C 3,2 km/h (1 Bft) 100,00 %
12.07.2016 00:50 19,9 C 96 % 1012,2 hPa 0,0 l/m 2,9 km/h (1 Bft) S 171 0 min 0,000 mm 0,0 UV-I 0 W/m 19,2 C 19,9 C 6,4 km/h (2 Bft) 100,00 %
12.07.2016 00:52 20,0 C 96 % 1012,2 hPa 0,0 l/m 2,1 km/h (1 Bft) S 171 0 min 0,000 mm 0,0 UV-I 0 W/m 19,3 C 20,0 C 6,4 km/h (2 Bft) 100,00 %
12.07.2016 00:54 20,1 C 96 % 1012,2 hPa 0,0 l/m 1,2 km/h (1 Bft) S 171 0 min 0,000 mm 0,0 UV-I 0 W/m 19,4 C 20,1 C 1,6 km/h (1 Bft) 100,00 %
12.07.2016 00:56 20,1 C 96 % 1012,2 hPa 0,0 l/m 0,8 km/h (0 Bft) S 171 0 min 0,000 mm 0,0 UV-I 0 W/m 19,4 C 20,1 C 1,6 km/h (1 Bft) 100,00 %
12.07.2016 00:58 20,0 C 96 % 1012,2 hPa 0,0 l/m 1,0 km/h (0 Bft) S 171 0 min 0,000 mm 0,0 UV-I 0 W/m 19,3 C 20,0 C 3,2 km/h (1 Bft) 100,00 %
12.07.2016 01:00 20,1 C 96 % 1012,2 hPa 0,0 l/m 1,0 km/h (0 Bft) S 171 0 min 0,000 mm 0,0 UV-I 0 W/m 19,4 C 20,1 C 1,6 km/h (1 Bft) 98,00 %
12.07.2016 01:02 20,0 C 96 % 1012,1 hPa 0,0 l/m 0,1 km/h (0 Bft) S 171 0 min 0,000 mm 0,0 UV-I 0 W/m 19,3 C 20,0 C 1,6 km/h (1 Bft) 98,00 %
12.07.2016 01:04 19,9 C 96 % 1012,2 hPa 0,0 l/m 0,0 km/h (0 Bft) S 171 0 min 0,000 mm 0,0 UV-I 0 W/m 19,2 C 19,9 C 0,0 km/h (0 Bft) 100,00 %
12.07.2016 01:06 19,9 C 96 % 1012,3 hPa 0,0 l/m 1,0 km/h (0 Bft) S 171 0 min 0,000 mm 0,0 UV-I 0 W/m 19,2 C 19,9 C 1,6 km/h (1 Bft) 100,00 %
12.07.2016 01:08 19,9 C 96 % 1012,2 hPa 0,0 l/m 0,0 km/h (0 Bft) S 171 0 min 0,000 mm 0,0 UV-I 0 W/m 19,2 C 19,9 C 1,6 km/h (1 Bft) 100,00 %
12.07.2016 01:10 20,1 C 97 % 1012,3 hPa 0,0 l/m 0,0 km/h (0 Bft) S 171 0 min 0,000 mm 0,0 UV-I 0 W/m 19,6 C 20,1 C 0,0 km/h (0 Bft) 100,00 %
12.07.2016 01:12 20,1 C 96 % 1012,3 hPa 0,0 l/m 0,0 km/h (0 Bft) S 171 0 min 0,000 mm 0,0 UV-I 0 W/m 19,4 C 20,1 C 0,0 km/h (0 Bft) 97,87 %
12.07.2016 01:14 20,1 C 96 % 1012,2 hPa 0,0 l/m 0,0 km/h (0 Bft) S 171 0 min 0,000 mm 0,0 UV-I 0 W/m 19,4 C 20,1 C 0,0 km/h (0 Bft) 100,00 %
12.07.2016 01:16 20,0 C 96 % 1012,2 hPa 0,0 l/m 0,0 km/h (0 Bft) S 171 0 min 0,000 mm 0,0 UV-I 0 W/m 19,3 C 20,0 C 0,0 km/h (0 Bft) 100,00 %
12.07.2016 01:18 20,0 C 96 % 1012,2 hPa 0,2 l/m 0,0 km/h (0 Bft) S 171 0 min 0,000 mm 0,0 UV-I 0 W/m 19,3 C 20,0 C 0,0 km/h (0 Bft) 97,37 %
12.07.2016 01:20 20,1 C 97 % 1012,2 hPa 0,0 l/m 0,0 km/h (0 Bft) S 171 0 min 0,000 mm 0,0 UV-I 0 W/m 19,6 C 20,1 C 0,0 km/h (0 Bft) 97,87 %
12.07.2016 01:22 20,1 C 96 % 1012,2 hPa 0,0 l/m 0,0 km/h (0 Bft) S 171 0 min 0,000 mm 0,0 UV-I 0 W/m 19,4 C 20,1 C 0,0 km/h (0 Bft) 97,87 %
12.07.2016 01:24 20,0 C 96 % 1012,2 hPa 0,0 l/m 1,0 km/h (0 Bft) S 171 0 min 0,000 mm 0,0 UV-I 0 W/m 19,3 C 20,0 C 3,2 km/h (1 Bft) 98,00 %
12.07.2016 01:26 20,0 C 96 % 1012,2 hPa 0,0 l/m 3,1 km/h (1 Bft) SW 214 0 min 0,000 mm 0,0 UV-I 0 W/m 19,3 C 20,0 C 6,4 km/h (2 Bft) 96,23 %
12.07.2016 01:28 20,0 C 96 % 1012,2 hPa 0,0 l/m 2,7 km/h (1 Bft) SW 214 0 min 0,000 mm 0,0 UV-I 0 W/m 19,3 C 20,0 C 4,8 km/h (1 Bft) 97,37 %
12.07.2016 01:30 20,0 C 96 % 1012,2 hPa 0,0 l/m 2,3 km/h (1 Bft) SW 214 0 min 0,000 mm 0,0 UV-I 0 W/m 19,3 C 20,0 C 3,2 km/h (1 Bft) 97,92 %
12.07.2016 01:32 20,0 C 96 % 1012,3 hPa 0,0 l/m 3,6 km/h (1 Bft) S-SW 205 0 min 0,000 mm 0,0 UV-I 0 W/m 19,3 C 20,0 C 6,4 km/h (2 Bft) 96,00 %
12.07.2016 01:34 19,9 C 96 % 1012,3 hPa 0,0 l/m 3,8 km/h (1 Bft) S 188 0 min 0,000 mm 0,0 UV-I 0 W/m 19,2 C 19,9 C 4,8 km/h (1 Bft) 93,62 %
12.07.2016 01:36 19,9 C 97 % 1012,4 hPa 0,0 l/m 3,8 km/h (1 Bft) W-SW 257 0 min 0,000 mm 0,0 UV-I 0 W/m 19,4 C 19,9 C 4,8 km/h (1 Bft) 96,00 %
12.07.2016 01:38 19,9 C 97 % 1012,4 hPa 0,0 l/m 3,1 km/h (1 Bft) SW 229 0 min 0,000 mm 0,0 UV-I 0 W/m 19,4 C 19,9 C 4,8 km/h (1 Bft) 97,37 %
12.07.2016 01:40 19,9 C 97 % 1012,4 hPa 0,0 l/m 3,7 km/h (1 Bft) SW 217 0 min 0,000 mm 0,0 UV-I 0 W/m 19,4 C 19,9 C 6,4 km/h (2 Bft) 97,87 %
12.07.2016 01:42 19,9 C 97 % 1012,4 hPa 0,0 l/m 6,8 km/h (2 Bft) W-SW 250 0 min 0,000 mm 0,0 UV-I 0 W/m 19,4 C 19,7 C 9,7 km/h (2 Bft) 98,11 %
12.07.2016 01:44 19,9 C 97 % 1012,4 hPa 0,0 l/m 6,1 km/h (2 Bft) SW 227 0 min 0,000 mm 0,0 UV-I 0 W/m 19,4 C 19,9 C 8,0 km/h (2 Bft) 98,00 %
12.07.2016 01:46 19,9 C 97 % 1012,4 hPa 0,2 l/m 5,3 km/h (1 Bft) W-SW 258 0 min 0,000 mm 0,0 UV-I 0 W/m 19,4 C 19,9 C 6,4 km/h (2 Bft) 97,56 %
12.07.2016 01:48 19,9 C 97 % 1012,4 hPa 0,0 l/m 5,3 km/h (1 Bft) W-SW 247 0 min 0,000 mm 0,0 UV-I 0 W/m 19,4 C 19,9 C 11,3 km/h (2 Bft) 98,11 %
12.07.2016 01:50 19,9 C 97 % 1012,3 hPa 0,0 l/m 6,7 km/h (2 Bft) W-SW 253 0 min 0,000 mm 0,0 UV-I 0 W/m 19,4 C 19,8 C 11,3 km/h (2 Bft) 97,56 %
12.07.2016 01:52 19,9 C 97 % 1012,3 hPa 0,0 l/m 5,3 km/h (1 Bft) S-SW 212 0 min 0,000 mm 0,0 UV-I 0 W/m 19,4 C 19,9 C 9,7 km/h (2 Bft) 96,00 %
12.07.2016 01:54 19,9 C 96 % 1012,3 hPa 0,2 l/m 6,2 km/h (2 Bft) W-SW 253 0 min 0,000 mm 0,0 UV-I 0 W/m 19,2 C 19,9 C 11,3 km/h (2 Bft) 98,00 %
12.07.2016 01:56 19,8 C 96 % 1012,3 hPa 0,0 l/m 7,9 km/h (2 Bft) SW 228 0 min 0,000 mm 0,0 UV-I 0 W/m 19,1 C 19,2 C 11,3 km/h (2 Bft) 100,00 %
12.07.2016 01:58 19,8 C 96 % 1012,2 hPa 0,0 l/m 7,6 km/h (2 Bft) W-SW 248 0 min 0,000 mm 0,0 UV-I 0 W/m 19,1 C 19,3 C 12,9 km/h (3 Bft) 100,00 %
12.07.2016 02:00 19,8 C 97 % 1012,2 hPa 0,2 l/m 9,4 km/h (2 Bft) W-SW 246 0 min 0,000 mm 0,0 UV-I 0 W/m 19,3 C 18,6 C 14,5 km/h (3 Bft) 97,56 %
12.07.2016 02:02 19,8 C 97 % 1012,2 hPa 0,0 l/m 8,0 km/h (2 Bft) W-SW 237 0 min 0,000 mm 0,0 UV-I 0 W/m 19,3 C 19,1 C 12,9 km/h (3 Bft) 98,11 %
12.07.2016 02:04 19,8 C 96 % 1012,3 hPa 0,2 l/m 9,4 km/h (2 Bft) SW 232 0 min 0,000 mm 0,0 UV-I 0 W/m 19,1 C 18,6 C 14,5 km/h (3 Bft) 100,00 %
12.07.2016 02:06 19,8 C 96 % 1012,3 hPa 0,0 l/m 9,6 km/h (2 Bft) W-SW 238 0 min 0,000 mm 0,0 UV-I 0 W/m 19,1 C 18,6 C 14,5 km/h (3 Bft) 97,92 %
12.07.2016 02:08 19,8 C 96 % 1012,3 hPa 0,2 l/m 10,5 km/h (2 Bft) W-SW 237 0 min 0,000 mm 0,0 UV-I 0 W/m 19,1 C 18,3 C 16,1 km/h (3 Bft) 100,00 %
12.07.2016 02:10 19,8 C 96 % 1012,3 hPa 0,0 l/m 8,4 km/h (2 Bft) SW 234 0 min 0,000 mm 0,0 UV-I 0 W/m 19,1 C 19,0 C 14,5 km/h (3 Bft) 100,00 %
12.07.2016 02:12 19,8 C 96 % 1012,3 hPa 0,2 l/m 6,9 km/h (2 Bft) W-SW 245 0 min 0,000 mm 0,0 UV-I 0 W/m 19,1 C 19,6 C 11,3 km/h (2 Bft) 100,00 %
12.07.2016 02:14 19,7 C 96 % 1012,3 hPa 0,2 l/m 7,3 km/h (2 Bft) S 190 0 min 0,000 mm 0,0 UV-I 0 W/m 19,0 C 19,3 C 11,3 km/h (2 Bft) 98,21 %
12.07.2016 02:16 19,7 C 96 % 1012,3 hPa 0,0 l/m 7,7 km/h (2 Bft) SW 217 0 min 0,000 mm 0,0 UV-I 0 W/m 19,0 C 19,2 C 14,5 km/h (3 Bft) 100,00 %
12.07.2016 02:18 19,7 C 96 % 1012,3 hPa 0,2 l/m 8,3 km/h (2 Bft) S-SW 206 0 min 0,000 mm 0,0 UV-I 0 W/m 19,0 C 18,9 C 16,1 km/h (3 Bft) 100,00 %
12.07.2016 02:20 19,7 C 96 % 1012,3 hPa 0,2 l/m 5,7 km/h (1 Bft) SW 228 0 min 0,000 mm 0,0 UV-I 0 W/m 19,0 C 19,7 C 11,3 km/h (2 Bft) 97,87 %
12.07.2016 02:22 19,7 C 96 % 1012,3 hPa 0,0 l/m 6,3 km/h (2 Bft) S-SW 192 0 min 0,000 mm 0,0 UV-I 0 W/m 19,0 C 19,7 C 9,7 km/h (2 Bft) 97,87 %
12.07.2016 02:24 19,7 C 96 % 1012,3 hPa 0,0 l/m 5,6 km/h (1 Bft) SW 236 0 min 0,000 mm 0,0 UV-I 0 W/m 19,0 C 19,7 C 8,0 km/h (2 Bft) 100,00 %
12.07.2016 02:26 19,6 C 96 % 1012,3 hPa 0,2 l/m 5,2 km/h (1 Bft) SW 219 0 min 0,000 mm 0,0 UV-I 0 W/m 18,9 C 19,6 C 6,4 km/h (2 Bft) 97,56 %
12.07.2016 02:28 19,6 C 96 % 1012,3 hPa 0,0 l/m 4,6 km/h (1 Bft) SW 232 0 min 0,000 mm 0,0 UV-I 0 W/m 18,9 C 19,6 C 8,0 km/h (2 Bft) 100,00 %
12.07.2016 02:30 19,6 C 96 % 1012,3 hPa 0,0 l/m 4,9 km/h (1 Bft) SW 217 0 min 0,000 mm 0,0 UV-I 0 W/m 18,9 C 19,6 C 6,4 km/h (2 Bft) 100,00 %
12.07.2016 02:32 19,6 C 96 % 1012,2 hPa 0,2 l/m 4,7 km/h (1 Bft) S 179 0 min 0,000 mm 0,0 UV-I 0 W/m 18,9 C 19,6 C 6,4 km/h (2 Bft) 96,00 %
12.07.2016 02:34 19,7 C 96 % 1012,2 hPa 0,0 l/m 3,7 km/h (1 Bft) S-SW 206 0 min 0,000 mm 0,0 UV-I 0 W/m 19,0 C 19,7 C 6,4 km/h (2 Bft) 100,00 %
12.07.2016 02:36 19,7 C 96 % 1012,2 hPa 0,2 l/m 3,9 km/h (1 Bft) S 185 0 min 0,000 mm 0,0 UV-I 0 W/m 19,0 C 19,7 C 6,4 km/h (2 Bft) 100,00 %
12.07.2016 02:38 19,7 C 96 % 1012,2 hPa 0,0 l/m 4,3 km/h (1 Bft) S 182 0 min 0,000 mm 0,0 UV-I 0 W/m 19,0 C 19,7 C 6,4 km/h (2 Bft) 100,00 %
12.07.2016 02:40 19,7 C 96 % 1012,0 hPa 0,2 l/m 3,0 km/h (1 Bft) S 184 0 min 0,000 mm 0,0 UV-I 0 W/m 19,0 C 19,7 C 4,8 km/h (1 Bft) 100,00 %
12.07.2016 02:42 19,7 C 96 % 1012,0 hPa 0,0 l/m 3,5 km/h (1 Bft) SW 234 0 min 0,000 mm 0,0 UV-I 0 W/m 19,0 C 19,7 C 6,4 km/h (2 Bft) 100,00 %
12.07.2016 02:44 19,7 C 97 % 1011,8 hPa 0,2 l/m 1,4 km/h (1 Bft) SW 234 0 min 0,000 mm 0,0 UV-I 0 W/m 19,2 C 19,7 C 3,2 km/h (1 Bft) 100,00 %
12.07.2016 02:46 19,7 C 96 % 1011,8 hPa 0,0 l/m 1,0 km/h (0 Bft) W 266 0 min 0,000 mm 0,0 UV-I 0 W/m 19,0 C 19,7 C 3,2 km/h (1 Bft) 100,00 %
12.07.2016 02:48 19,7 C 96 % 1011,7 hPa 0,2 l/m 0,8 km/h (0 Bft) W 269 0 min 0,000 mm 0,0 UV-I 0 W/m 19,0 C 19,7 C 3,2 km/h (1 Bft) 100,00 %
12.07.2016 02:50 19,6 C 96 % 1011,6 hPa 0,0 l/m 0,3 km/h (0 Bft) N-NW 337 0 min 0,000 mm 0,0 UV-I 0 W/m 18,9 C 19,6 C 1,6 km/h (1 Bft) 100,00 %
12.07.2016 02:52 19,6 C 96 % 1011,6 hPa 0,4 l/m 0,7 km/h (0 Bft) N 350 0 min 0,000 mm 0,0 UV-I 0 W/m 18,9 C 19,6 C 3,2 km/h (1 Bft) 100,00 %
12.07.2016 02:54 19,6 C 97 % 1011,6 hPa 0,2 l/m 1,4 km/h (1 Bft) N 351 0 min 0,000 mm 0,0 UV-I 0 W/m 19,1 C 19,6 C 3,2 km/h (1 Bft) 100,00 %
12.07.2016 02:56 19,6 C 97 % 1011,6 hPa 0,4 l/m 0,2 km/h (0 Bft) N 351 0 min 0,000 mm 0,0 UV-I 0 W/m 19,1 C 19,6 C 1,6 km/h (1 Bft) 100,00 %
12.07.2016 02:58 19,6 C 97 % 1011,7 hPa 0,2 l/m 0,4 km/h (0 Bft) N 351 0 min 0,000 mm 0,0 UV-I 0 W/m 19,1 C 19,6 C 1,6 km/h (1 Bft) 100,00 %
12.07.2016 03:00 19,6 C 97 % 1011,8 hPa 0,0 l/m 0,0 km/h (0 Bft) N 351 0 min 0,000 mm 0,0 UV-I 0 W/m 19,1 C 19,6 C 0,0 km/h (0 Bft) 100,00 %
12.07.2016 03:02 19,6 C 97 % 1011,8 hPa 0,2 l/m 0,0 km/h (0 Bft) N 351 0 min 0,000 mm 0,0 UV-I 0 W/m 19,1 C 19,6 C 0,0 km/h (0 Bft) 100,00 %
12.07.2016 03:04 19,6 C 97 % 1011,8 hPa 0,0 l/m 0,0 km/h (0 Bft) N 351 0 min 0,000 mm 0,0 UV-I 0 W/m 19,1 C 19,6 C 0,0 km/h (0 Bft) 100,00 %
12.07.2016 03:06 19,6 C 97 % 1011,7 hPa 0,2 l/m 0,0 km/h (0 Bft) N 351 0 min 0,000 mm 0,0 UV-I 0 W/m 19,1 C 19,6 C 0,0 km/h (0 Bft) 97,87 %
12.07.2016 03:08 19,6 C 97 % 1011,6 hPa 0,0 l/m 0,0 km/h (0 Bft) N 351 0 min 0,000 mm 0,0 UV-I 0 W/m 19,1 C 19,6 C 0,0 km/h (0 Bft) 100,00 %
12.07.2016 03:10 19,6 C 97 % 1011,6 hPa 0,0 l/m 0,0 km/h (0 Bft) N 351 0 min 0,000 mm 0,0 UV-I 0 W/m 19,1 C 19,6 C 0,0 km/h (0 Bft) 100,00 %
12.07.2016 03:12 19,6 C 97 % 1011,6 hPa 0,0 l/m 0,0 km/h (0 Bft) N 351 0 min 0,000 mm 0,0 UV-I 0 W/m 19,1 C 19,6 C 1,6 km/h (1 Bft) 96,00 %
12.07.2016 03:14 19,6 C 97 % 1011,5 hPa 0,0 l/m 1,3 km/h (1 Bft) N 351 0 min 0,000 mm 0,0 UV-I 0 W/m 19,1 C 19,6 C 1,6 km/h (1 Bft) 100,00 %
12.07.2016 03:16 19,7 C 97 % 1011,5 hPa 0,2 l/m 1,5 km/h (1 Bft) N 351 0 min 0,000 mm 0,0 UV-I 0 W/m 19,2 C 19,7 C 3,2 km/h (1 Bft) 100,00 %
12.07.2016 03:18 19,6 C 97 % 1011,4 hPa 0,0 l/m 1,6 km/h (1 Bft) N 351 0 min 0,000 mm 0,0 UV-I 0 W/m 19,1 C 19,6 C 3,2 km/h (1 Bft) 98,11 %
12.07.2016 03:20 19,6 C 97 % 1011,3 hPa 0,0 l/m 1,5 km/h (1 Bft) N 351 0 min 0,000 mm 0,0 UV-I 0 W/m 19,1 C 19,6 C 1,6 km/h (1 Bft) 97,87 %
12.07.2016 03:22 19,6 C 97 % 1011,3 hPa 0,0 l/m 1,4 km/h (1 Bft) N 351 0 min 0,000 mm 0,0 UV-I 0 W/m 19,1 C 19,6 C 1,6 km/h (1 Bft) 97,87 %
12.07.2016 03:24 19,6 C 97 % 1011,3 hPa 0,2 l/m 1,2 km/h (1 Bft) N 351 0 min 0,000 mm 0,0 UV-I 0 W/m 19,1 C 19,6 C 1,6 km/h (1 Bft) 97,87 %
12.07.2016 03:26 19,6 C 97 % 1011,3 hPa 0,0 l/m 0,8 km/h (0 Bft) N 351 0 min 0,000 mm 0,0 UV-I 0 W/m 19,1 C 19,6 C 1,6 km/h (1 Bft) 97,62 %
12.07.2016 03:28 19,6 C 97 % 1011,2 hPa 0,0 l/m 0,4 km/h (0 Bft) N 351 0 min 0,000 mm 0,0 UV-I 0 W/m 19,1 C 19,6 C 1,6 km/h (1 Bft) 96,15 %
12.07.2016 03:30 19,6 C 97 % 1011,2 hPa 0,0 l/m 1,1 km/h (1 Bft) N 351 0 min 0,000 mm 0,0 UV-I 0 W/m 19,1 C 19,6 C 1,6 km/h (1 Bft) 97,44 %
12.07.2016 03:32 19,6 C 97 % 1011,2 hPa 0,0 l/m 2,1 km/h (1 Bft) N 351 0 min 0,000 mm 0,0 UV-I 0 W/m 19,1 C 19,6 C 3,2 km/h (1 Bft) 98,21 %
12.07.2016 03:34 19,6 C 97 % 1011,3 hPa 0,0 l/m 1,2 km/h (1 Bft) N 351 0 min 0,000 mm 0,0 UV-I 0 W/m 19,1 C 19,6 C 1,6 km/h (1 Bft) 97,56 %
12.07.2016 03:36 19,6 C 97 % 1011,2 hPa 0,0 l/m 1,8 km/h (1 Bft) N 351 0 min 0,000 mm 0,0 UV-I 0 W/m 19,1 C 19,6 C 3,2 km/h (1 Bft) 97,87 %
12.07.2016 03:38 19,6 C 97 % 1011,2 hPa 0,0 l/m 2,3 km/h (1 Bft) N 351 0 min 0,000 mm 0,0 UV-I 0 W/m 19,1 C 19,6 C 3,2 km/h (1 Bft) 96,00 %
12.07.2016 03:40 19,5 C 97 % 1011,1 hPa 0,0 l/m 2,7 km/h (1 Bft) N 351 0 min 0,000 mm 0,0 UV-I 0 W/m 19,0 C 19,5 C 4,8 km/h (1 Bft) 97,73 %
12.07.2016 03:42 19,5 C 97 % 1011,0 hPa 0,2 l/m 2,6 km/h (1 Bft) N 351 0 min 0,000 mm 0,0 UV-I 0 W/m 19,0 C 19,5 C 3,2 km/h (1 Bft) 97,87 %
12.07.2016 03:44 19,5 C 97 % 1011,0 hPa 0,0 l/m 2,9 km/h (1 Bft) N 351 0 min 0,000 mm 0,0 UV-I 0 W/m 19,0 C 19,5 C 3,2 km/h (1 Bft) 97,56 %
12.07.2016 03:46 19,5 C 97 % 1011,0 hPa 0,0 l/m 1,9 km/h (1 Bft) N 351 0 min 0,000 mm 0,0 UV-I 0 W/m 19,0 C 19,5 C 3,2 km/h (1 Bft) 98,11 %
12.07.2016 03:48 19,5 C 97 % 1010,8 hPa 0,0 l/m 2,3 km/h (1 Bft) N 351 0 min 0,000 mm 0,0 UV-I 0 W/m 19,0 C 19,5 C 3,2 km/h (1 Bft) 95,74 %
12.07.2016 03:50 19,5 C 97 % 1010,8 hPa 0,0 l/m 3,4 km/h (1 Bft) O-NO 63 0 min 0,000 mm 0,0 UV-I 0 W/m 19,0 C 19,5 C 6,4 km/h (2 Bft) 97,87 %
12.07.2016 03:52 19,5 C 97 % 1010,8 hPa 0,0 l/m 3,8 km/h (1 Bft) O-NO 69 0 min 0,000 mm 0,0 UV-I 0 W/m 19,0 C 19,5 C 4,8 km/h (1 Bft) 98,00 %
12.07.2016 03:54 19,5 C 97 % 1010,7 hPa 0,0 l/m 4,3 km/h (1 Bft) O-NO 63 0 min 0,000 mm 0,0 UV-I 0 W/m 19,0 C 19,5 C 6,4 km/h (2 Bft) 97,87 %
12.07.2016 03:56 19,5 C 97 % 1010,7 hPa 0,0 l/m 4,6 km/h (1 Bft) O-NO 69 0 min 0,000 mm 0,0 UV-I 0 W/m 19,0 C 19,5 C 6,4 km/h (2 Bft) 100,00 %
12.07.2016 03:58 19,5 C 97 % 1010,7 hPa 0,0 l/m 5,3 km/h (1 Bft) O-NO 78 0 min 0,000 mm 0,0 UV-I 0 W/m 19,0 C 19,5 C 6,4 km/h (2 Bft) 97,37 %
12.07.2016 04:00 19,6 C 97 % 1010,7 hPa 0,0 l/m 3,3 km/h (1 Bft) O-NO 78 0 min 0,000 mm 0,0 UV-I 0 W/m 19,1 C 19,6 C 4,8 km/h (1 Bft) 100,00 %
12.07.2016 04:02 19,6 C 97 % 1010,7 hPa 0,0 l/m 2,5 km/h (1 Bft) O-NO 78 0 min 0,000 mm 0,0 UV-I 0 W/m 19,1 C 19,6 C 3,2 km/h (1 Bft) 100,00 %
12.07.2016 04:04 19,5 C 97 % 1010,6 hPa 0,0 l/m 3,3 km/h (1 Bft) O-NO 72 0 min 0,000 mm 0,0 UV-I 0 W/m 19,0 C 19,5 C 6,4 km/h (2 Bft) 97,87 %
12.07.2016 04:06 19,5 C 97 % 1010,6 hPa 0,0 l/m 4,5 km/h (1 Bft) NO 55 0 min 0,000 mm 0,0 UV-I 0 W/m 19,0 C 19,5 C 6,4 km/h (2 Bft) 100,00 %
12.07.2016 04:08 19,5 C 97 % 1010,6 hPa 0,0 l/m 5,4 km/h (1 Bft) O-NO 64 0 min 0,000 mm 0,0 UV-I 0 W/m 19,0 C 19,5 C 6,4 km/h (2 Bft) 100,00 %
12.07.2016 04:10 19,4 C 97 % 1010,6 hPa 0,0 l/m 4,9 km/h (1 Bft) O-NO 74 0 min 0,000 mm 0,0 UV-I 0 W/m 18,9 C 19,4 C 6,4 km/h (2 Bft) 100,00 %
12.07.2016 04:12 19,4 C 97 % 1010,6 hPa 0,0 l/m 5,3 km/h (1 Bft) O-NO 61 0 min 0,000 mm 0,0 UV-I 0 W/m 18,9 C 19,4 C 8,0 km/h (2 Bft) 96,08 %
12.07.2016 04:14 19,4 C 97 % 1010,6 hPa 0,0 l/m 4,7 km/h (1 Bft) O-NO 69 0 min 0,000 mm 0,0 UV-I 0 W/m 18,9 C 19,4 C 8,0 km/h (2 Bft) 97,87 %
12.07.2016 04:16 19,4 C 97 % 1010,5 hPa 0,0 l/m 3,3 km/h (1 Bft) O-NO 66 0 min 0,000 mm 0,0 UV-I 0 W/m 18,9 C 19,4 C 4,8 km/h (1 Bft) 97,87 %
12.07.2016 04:18 19,4 C 97 % 1010,5 hPa 0,0 l/m 3,0 km/h (1 Bft) O-NO 65 0 min 0,000 mm 0,0 UV-I 0 W/m 18,9 C 19,4 C 3,2 km/h (1 Bft) 100,00 %
12.07.2016 04:20 19,4 C 97 % 1010,5 hPa 0,0 l/m 3,7 km/h (1 Bft) NO 53 0 min 0,000 mm 0,0 UV-I 0 W/m 18,9 C 19,4 C 4,8 km/h (1 Bft) 100,00 %
12.07.2016 04:22 19,4 C 97 % 1010,5 hPa 0,0 l/m 3,6 km/h (1 Bft) NO 53 0 min 0,000 mm 0,0 UV-I 0 W/m 18,9 C 19,4 C 4,8 km/h (1 Bft) 100,00 %
12.07.2016 04:24 19,4 C 97 % 1010,4 hPa 0,0 l/m 3,8 km/h (1 Bft) NO 53 0 min 0,000 mm 0,0 UV-I 0 W/m 18,9 C 19,4 C 4,8 km/h (1 Bft) 100,00 %
12.07.2016 04:26 19,4 C 97 % 1010,4 hPa 0,0 l/m 3,6 km/h (1 Bft) NO 53 0 min 0,000 mm 0,0 UV-I 0 W/m 18,9 C 19,4 C 4,8 km/h (1 Bft) 100,00 %
12.07.2016 04:28 19,4 C 97 % 1010,4 hPa 0,0 l/m 3,0 km/h (1 Bft) NO 53 0 min 0,000 mm 0,0 UV-I 0 W/m 18,9 C 19,4 C 4,8 km/h (1 Bft) 100,00 %
12.07.2016 04:30 19,4 C 97 % 1010,3 hPa 0,0 l/m 4,3 km/h (1 Bft) O-NO 67 0 min 0,000 mm 0,0 UV-I 0 W/m 18,9 C 19,4 C 8,0 km/h (2 Bft) 100,00 %
12.07.2016 04:32 19,4 C 97 % 1010,3 hPa 0,0 l/m 4,2 km/h (1 Bft) O-NO 62 0 min 0,000 mm 0,0 UV-I 0 W/m 18,9 C 19,4 C 6,4 km/h (2 Bft) 100,00 %
12.07.2016 04:34 19,3 C 97 % 1010,3 hPa 0,0 l/m 3,8 km/h (1 Bft) O-NO 63 0 min 0,000 mm 0,0 UV-I 0 W/m 18,8 C 19,3 C 6,4 km/h (2 Bft) 100,00 %
12.07.2016 04:36 19,4 C 97 % 1010,4 hPa 0,0 l/m 4,2 km/h (1 Bft) O-NO 66 0 min 0,000 mm 0,0 UV-I 0 W/m 18,9 C 19,4 C 6,4 km/h (2 Bft) 100,00 %
12.07.2016 04:38 19,4 C 97 % 1010,4 hPa 0,0 l/m 1,2 km/h (1 Bft) O-NO 66 0 min 0,000 mm 0,0 UV-I 0 W/m 18,9 C 19,4 C 3,2 km/h (1 Bft) 100,00 %
12.07.2016 04:40 19,3 C 97 % 1010,4 hPa 0,0 l/m 0,0 km/h (0 Bft) O-NO 66 0 min 0,000 mm 0,0 UV-I 0 W/m 18,8 C 19,3 C 0,0 km/h (0 Bft) 98,00 %
12.07.2016 04:42 19,3 C 97 % 1010,3 hPa 0,0 l/m 0,1 km/h (0 Bft) O-NO 66 0 min 0,000 mm 0,0 UV-I 0 W/m 18,8 C 19,3 C 1,6 km/h (1 Bft) 100,00 %
12.07.2016 04:44 19,3 C 97 % 1010,4 hPa 0,0 l/m 1,0 km/h (0 Bft) O-NO 66 0 min 0,000 mm 0,0 UV-I 0 W/m 18,8 C 19,3 C 1,6 km/h (1 Bft) 100,00 %
12.07.2016 04:46 19,3 C 97 % 1010,5 hPa 0,0 l/m 2,4 km/h (1 Bft) O-NO 66 0 min 0,000 mm 0,0 UV-I 0 W/m 18,8 C 19,3 C 3,2 km/h (1 Bft) 100,00 %
12.07.2016 04:48 19,3 C 97 % 1010,6 hPa 0,0 l/m 0,8 km/h (0 Bft) O-NO 66 0 min 0,000 mm 0,0 UV-I 0 W/m 18,8 C 19,3 C 3,2 km/h (1 Bft) 96,00 %
12.07.2016 04:50 19,3 C 97 % 1010,7 hPa 0,0 l/m 0,9 km/h (0 Bft) O-NO 66 0 min 0,000 mm 0,0 UV-I 0 W/m 18,8 C 19,3 C 3,2 km/h (1 Bft) 100,00 %
12.07.2016 04:52 19,4 C 97 % 1010,9 hPa 0,0 l/m 2,6 km/h (1 Bft) N 11 0 min 0,000 mm 0,0 UV-I 0 W/m 18,9 C 19,4 C 3,2 km/h (1 Bft) 100,00 %
12.07.2016 04:54 19,4 C 97 % 1011,0 hPa 0,0 l/m 2,9 km/h (1 Bft) N 355 0 min 0,000 mm 0,0 UV-I 0 W/m 18,9 C 19,4 C 4,8 km/h (1 Bft) 100,00 %
12.07.2016 04:56 19,3 C 97 % 1011,0 hPa 0,0 l/m 0,8 km/h (0 Bft) N 355 0 min 0,000 mm 0,0 UV-I 0 W/m 18,8 C 19,3 C 3,2 km/h (1 Bft) 98,00 %
12.07.2016 04:58 19,3 C 97 % 1011,1 hPa 0,0 l/m 0,0 km/h (0 Bft) N 355 0 min 0,000 mm 0,0 UV-I 0 W/m 18,8 C 19,3 C 0,0 km/h (0 Bft) 100,00 %
12.07.2016 05:00 19,3 C 97 % 1011,0 hPa 0,0 l/m 0,1 km/h (0 Bft) N 355 0 min 0,000 mm 0,0 UV-I 0 W/m 18,8 C 19,3 C 1,6 km/h (1 Bft) 100,00 %
12.07.2016 05:02 19,3 C 97 % 1010,9 hPa 0,0 l/m 0,4 km/h (0 Bft) N 355 0 min 0,000 mm 0,0 UV-I 0 W/m 18,8 C 19,3 C 1,6 km/h (1 Bft) 97,56 %
12.07.2016 05:04 19,3 C 97 % 1010,9 hPa 0,0 l/m 0,7 km/h (0 Bft) N 355 0 min 0,000 mm 0,0 UV-I 0 W/m 18,8 C 19,3 C 3,2 km/h (1 Bft) 97,87 %
12.07.2016 05:06 19,3 C 97 % 1010,9 hPa 0,0 l/m 1,3 km/h (1 Bft) N 355 0 min 0,000 mm 0,0 UV-I 0 W/m 18,8 C 19,3 C 3,2 km/h (1 Bft) 100,00 %
12.07.2016 05:08 19,3 C 97 % 1011,0 hPa 0,0 l/m 0,5 km/h (0 Bft) N 355 0 min 0,000 mm 0,0 UV-I 0 W/m 18,8 C 19,3 C 1,6 km/h (1 Bft) 100,00 %
12.07.2016 05:10 19,3 C 97 % 1011,0 hPa 0,0 l/m 0,1 km/h (0 Bft) N 355 0 min 0,000 mm 0,0 UV-I 0 W/m 18,8 C 19,3 C 1,6 km/h (1 Bft) 100,00 %
12.07.2016 05:12 19,3 C 97 % 1010,9 hPa 0,0 l/m 0,0 km/h (0 Bft) N 355 0 min 0,000 mm 0,0 UV-I 0 W/m 18,8 C 19,3 C 1,6 km/h (1 Bft) 97,87 %
12.07.2016 05:14 19,3 C 97 % 1010,8 hPa 0,0 l/m 0,7 km/h (0 Bft) N 355 0 min 0,000 mm 0,0 UV-I 0 W/m 18,8 C 19,3 C 1,6 km/h (1 Bft) 100,00 %
12.07.2016 05:16 19,3 C 97 % 1010,8 hPa 0,0 l/m 0,0 km/h (0 Bft) N 355 0 min 0,000 mm 0,0 UV-I 0 W/m 18,8 C 19,3 C 1,6 km/h (1 Bft) 100,00 %
12.07.2016 05:18 19,2 C 97 % 1010,7 hPa 0,0 l/m 0,1 km/h (0 Bft) N 355 0 min 0,000 mm 0,0 UV-I 0 W/m 18,7 C 19,2 C 1,6 km/h (1 Bft) 100,00 %
12.07.2016 05:20 19,2 C 97 % 1010,7 hPa 0,0 l/m 0,1 km/h (0 Bft) N 355 0 min 0,000 mm 0,0 UV-I 5 W/m 18,7 C 19,2 C 1,6 km/h (1 Bft) 96,00 %
12.07.2016 05:22 19,2 C 97 % 1010,7 hPa 0,0 l/m 0,3 km/h (0 Bft) N 355 0 min 0,000 mm 0,0 UV-I 5 W/m 18,7 C 19,2 C 1,6 km/h (1 Bft) 97,22 %
12.07.2016 05:24 19,2 C 97 % 1010,8 hPa 0,0 l/m 0,5 km/h (0 Bft) N 355 0 min 0,000 mm 0,0 UV-I 5 W/m 18,7 C 19,2 C 1,6 km/h (1 Bft) 95,12 %
12.07.2016 05:26 19,2 C 98 % 1010,8 hPa 0,0 l/m 0,6 km/h (0 Bft) N 355 0 min 0,000 mm 0,0 UV-I 5 W/m 18,9 C 19,2 C 1,6 km/h (1 Bft) 95,31 %
12.07.2016 05:28 19,2 C 98 % 1010,8 hPa 0,0 l/m 0,9 km/h (0 Bft) N 355 0 min 0,000 mm 0,0 UV-I 5 W/m 18,9 C 19,2 C 1,6 km/h (1 Bft) 97,22 %
12.07.2016 05:30 19,3 C 98 % 1010,9 hPa 0,0 l/m 0,7 km/h (0 Bft) N 355 0 min 0,000 mm 0,0 UV-I 5 W/m 19,0 C 19,3 C 1,6 km/h (1 Bft) 98,11 %
12.07.2016 05:32 19,3 C 98 % 1011,0 hPa 0,0 l/m 0,0 km/h (0 Bft) N 355 0 min 0,000 mm 0,0 UV-I 7 W/m 19,0 C 19,3 C 0,0 km/h (0 Bft) 98,11 %
12.07.2016 05:34 19,3 C 98 % 1011,0 hPa 0,0 l/m 0,2 km/h (0 Bft) N 355 0 min 0,000 mm 0,0 UV-I 8 W/m 19,0 C 19,3 C 1,6 km/h (1 Bft) 95,74 %
12.07.2016 05:36 19,4 C 98 % 1010,9 hPa 0,0 l/m 0,4 km/h (0 Bft) N 355 0 min 0,000 mm 0,0 UV-I 9 W/m 19,1 C 19,4 C 1,6 km/h (1 Bft) 95,74 %
12.07.2016 05:38 19,4 C 98 % 1010,9 hPa 0,0 l/m 0,8 km/h (0 Bft) N 355 0 min 0,000 mm 0,0 UV-I 10 W/m 19,1 C 19,4 C 3,2 km/h (1 Bft) 97,37 %
12.07.2016 05:40 19,4 C 98 % 1010,9 hPa 0,0 l/m 0,1 km/h (0 Bft) N 355 0 min 0,000 mm 0,0 UV-I 11 W/m 19,1 C 19,4 C 1,6 km/h (1 Bft) 91,49 %
12.07.2016 05:42 19,4 C 98 % 1010,8 hPa 0,0 l/m 1,1 km/h (1 Bft) NO 40 0 min 0,000 mm 0,0 UV-I 11 W/m 19,1 C 19,4 C 3,2 km/h (1 Bft) 98,00 %
12.07.2016 05:44 19,4 C 98 % 1010,8 hPa 0,0 l/m 3,4 km/h (1 Bft) O 79 0 min 0,000 mm 0,0 UV-I 11 W/m 19,1 C 19,4 C 4,8 km/h (1 Bft) 100,00 %
12.07.2016 05:46 19,4 C 98 % 1010,9 hPa 0,0 l/m 3,0 km/h (1 Bft) O 80 0 min 0,000 mm 0,0 UV-I 11 W/m 19,1 C 19,4 C 4,8 km/h (1 Bft) 95,16 %
12.07.2016 05:48 19,4 C 98 % 1010,9 hPa 0,0 l/m 1,0 km/h (0 Bft) O 80 0 min 0,000 mm 0,0 UV-I 11 W/m 19,1 C 19,4 C 3,2 km/h (1 Bft) 97,87 %
12.07.2016 05:50 19,4 C 98 % 1010,8 hPa 0,0 l/m 2,9 km/h (1 Bft) O 80 0 min 0,000 mm 0,0 UV-I 13 W/m 19,1 C 19,4 C 4,8 km/h (1 Bft) 97,87 %
12.07.2016 05:52 19,4 C 98 % 1010,9 hPa 0,0 l/m 1,1 km/h (1 Bft) O 80 0 min 0,000 mm 0,0 UV-I 16 W/m 19,1 C 19,4 C 3,2 km/h (1 Bft) 100,00 %
12.07.2016 05:54 19,4 C 98 % 1011,0 hPa 0,0 l/m 0,1 km/h (0 Bft) O 80 0 min 0,000 mm 0,0 UV-I 14 W/m 19,1 C 19,4 C 1,6 km/h (1 Bft) 98,00 %
12.07.2016 05:56 19,4 C 98 % 1010,9 hPa 0,0 l/m 0,0 km/h (0 Bft) O 80 0 min 0,000 mm 0,0 UV-I 12 W/m 19,1 C 19,4 C 1,6 km/h (1 Bft) 100,00 %
12.07.2016 05:58 19,4 C 98 % 1010,8 hPa 0,0 l/m 0,8 km/h (0 Bft) O 80 0 min 0,000 mm 0,0 UV-I 12 W/m 19,1 C 19,4 C 1,6 km/h (1 Bft) 100,00 %
12.07.2016 06:00 19,4 C 98 % 1010,8 hPa 0,0 l/m 1,5 km/h (1 Bft) O 80 0 min 0,000 mm 0,0 UV-I 12 W/m 19,1 C 19,4 C 3,2 km/h (1 Bft) 100,00 %
12.07.2016 06:02 19,4 C 98 % 1010,9 hPa 0,0 l/m 0,0 km/h (0 Bft) O 80 0 min 0,000 mm 0,0 UV-I 14 W/m 19,1 C 19,4 C 1,6 km/h (1 Bft) 100,00 %
12.07.2016 06:04 19,4 C 98 % 1010,9 hPa 0,0 l/m 1,3 km/h (1 Bft) O 80 0 min 0,000 mm 0,0 UV-I 15 W/m 19,1 C 19,4 C 4,8 km/h (1 Bft) 98,00 %
12.07.2016 06:06 19,3 C 98 % 1010,9 hPa 0,0 l/m 2,7 km/h (1 Bft) O 80 0 min 0,000 mm 0,0 UV-I 16 W/m 19,0 C 19,3 C 3,2 km/h (1 Bft) 100,00 %
12.07.2016 06:08 19,4 C 98 % 1011,0 hPa 0,0 l/m 1,4 km/h (1 Bft) O 80 0 min 0,000 mm 0,0 UV-I 18 W/m 19,1 C 19,4 C 3,2 km/h (1 Bft) 100,00 %
12.07.2016 06:10 19,4 C 98 % 1011,1 hPa 0,0 l/m 0,2 km/h (0 Bft) O 80 0 min 0,000 mm 0,0 UV-I 18 W/m 19,1 C 19,4 C 1,6 km/h (1 Bft) 100,00 %
12.07.2016 06:12 19,4 C 98 % 1011,1 hPa 0,0 l/m 0,0 km/h (0 Bft) O 80 0 min 0,000 mm 0,0 UV-I 17 W/m 19,1 C 19,4 C 1,6 km/h (1 Bft) 100,00 %
12.07.2016 06:14 19,4 C 98 % 1011,2 hPa 0,0 l/m 0,7 km/h (0 Bft) O 80 0 min 0,000 mm 0,0 UV-I 17 W/m 19,1 C 19,4 C 1,6 km/h (1 Bft) 100,00 %
12.07.2016 06:16 19,4 C 98 % 1011,2 hPa 0,0 l/m 0,3 km/h (0 Bft) O 80 0 min 0,000 mm 0,0 UV-I 20 W/m 19,1 C 19,4 C 1,6 km/h (1 Bft) 100,00 %
12.07.2016 06:18 19,3 C 98 % 1011,2 hPa 0,0 l/m 0,1 km/h (0 Bft) O 80 0 min 0,000 mm 0,0 UV-I 18 W/m 19,0 C 19,3 C 1,6 km/h (1 Bft) 97,87 %
12.07.2016 06:20 19,3 C 98 % 1011,2 hPa 0,0 l/m 0,0 km/h (0 Bft) O 80 0 min 0,000 mm 0,0 UV-I 21 W/m 19,0 C 19,3 C 0,0 km/h (0 Bft) 100,00 %
12.07.2016 06:22 19,3 C 98 % 1011,2 hPa 0,0 l/m 0,0 km/h (0 Bft) O 80 0 min 0,000 mm 0,0 UV-I 25 W/m 19,0 C 19,3 C 0,0 km/h (0 Bft) 100,00 %
12.07.2016 06:24 19,4 C 98 % 1011,3 hPa 0,0 l/m 0,0 km/h (0 Bft) O 80 0 min 0,000 mm 0,0 UV-I 27 W/m 19,1 C 19,4 C 0,0 km/h (0 Bft) 100,00 %
12.07.2016 06:26 19,4 C 98 % 1011,3 hPa 0,0 l/m 0,0 km/h (0 Bft) O 80 0 min 0,000 mm 0,0 UV-I 31 W/m 19,1 C 19,4 C 0,0 km/h (0 Bft) 100,00 %
12.07.2016 06:28 19,4 C 98 % 1011,3 hPa 0,0 l/m 0,1 km/h (0 Bft) O 80 0 min 0,000 mm 0,0 UV-I 35 W/m 19,1 C 19,4 C 1,6 km/h (1 Bft) 98,00 %
12.07.2016 06:30 19,4 C 98 % 1011,3 hPa 0,0 l/m 0,5 km/h (0 Bft) O 80 0 min 0,000 mm 0,0 UV-I 43 W/m 19,1 C 19,4 C 1,6 km/h (1 Bft) 100,00 %
12.07.2016 06:32 19,4 C 98 % 1011,3 hPa 0,0 l/m 0,4 km/h (0 Bft) O 80 0 min 0,000 mm 0,0 UV-I 53 W/m 19,1 C 19,4 C 1,6 km/h (1 Bft) 97,87 %
12.07.2016 06:34 19,4 C 98 % 1011,3 hPa 0,0 l/m 0,0 km/h (0 Bft) O 80 0 min 0,000 mm 0,0 UV-I 63 W/m 19,1 C 19,4 C 1,6 km/h (1 Bft) 100,00 %
12.07.2016 06:36 19,5 C 98 % 1011,4 hPa 0,0 l/m 0,9 km/h (0 Bft) O 80 0 min 0,000 mm 0,0 UV-I 74 W/m 19,2 C 19,5 C 1,6 km/h (1 Bft) 100,00 %
12.07.2016 06:38 19,6 C 98 % 1011,4 hPa 0,0 l/m 0,6 km/h (0 Bft) O 80 0 min 0,000 mm 0,0 UV-I 76 W/m 19,3 C 19,6 C 1,6 km/h (1 Bft) 97,87 %
12.07.2016 06:40 19,6 C 98 % 1011,5 hPa 0,0 l/m 0,0 km/h (0 Bft) O 80 0 min 0,000 mm 0,0 UV-I 72 W/m 19,3 C 19,6 C 1,6 km/h (1 Bft) 97,92 %
12.07.2016 06:42 19,7 C 98 % 1011,5 hPa 0,0 l/m 0,2 km/h (0 Bft) O 80 0 min 0,000 mm 0,0 UV-I 73 W/m 19,4 C 19,7 C 1,6 km/h (1 Bft) 100,00 %
12.07.2016 06:44 19,7 C 98 % 1011,5 hPa 0,0 l/m 0,1 km/h (0 Bft) O 80 0 min 0,000 mm 0,0 UV-I 76 W/m 19,4 C 19,7 C 1,6 km/h (1 Bft) 100,00 %
12.07.2016 06:46 19,7 C 98 % 1011,5 hPa 0,0 l/m 0,3 km/h (0 Bft) O 80 0 min 0,000 mm 0,0 UV-I 81 W/m 19,4 C 19,7 C 1,6 km/h (1 Bft) 100,00 %
12.07.2016 06:48 19,7 C 98 % 1011,5 hPa 0,0 l/m 0,0 km/h (0 Bft) O 80 0 min 0,000 mm 0,0 UV-I 101 W/m 19,4 C 19,7 C 1,6 km/h (1 Bft) 100,00 %
12.07.2016 06:50 19,7 C 98 % 1011,5 hPa 0,0 l/m 1,4 km/h (1 Bft) O 80 0 min 0,000 mm 0,0 UV-I 70 W/m 19,4 C 19,7 C 3,2 km/h (1 Bft) 97,87 %
12.07.2016 06:52 19,7 C 98 % 1011,6 hPa 0,0 l/m 1,8 km/h (1 Bft) O 80 0 min 0,000 mm 0,0 UV-I 85 W/m 19,4 C 19,7 C 3,2 km/h (1 Bft) 100,00 %
12.07.2016 06:54 19,7 C 98 % 1011,6 hPa 0,0 l/m 1,9 km/h (1 Bft) O 80 2 min 0,000 mm 0,0 UV-I 130 W/m 19,4 C 19,7 C 3,2 km/h (1 Bft) 100,00 %
12.07.2016 06:56 19,7 C 98 % 1011,7 hPa 0,0 l/m 1,1 km/h (1 Bft) O 80 0 min 0,000 mm 0,0 UV-I 91 W/m 19,4 C 19,7 C 3,2 km/h (1 Bft) 100,00 %
12.07.2016 06:58 19,7 C 98 % 1011,7 hPa 0,0 l/m 2,0 km/h (1 Bft) O 80 0 min 0,000 mm 0,0 UV-I 69 W/m 19,4 C 19,7 C 3,2 km/h (1 Bft) 100,00 %
12.07.2016 07:00 19,7 C 98 % 1011,7 hPa 0,0 l/m 2,1 km/h (1 Bft) O 93 0 min 0,025 mm 0,0 UV-I 60 W/m 19,4 C 19,7 C 3,2 km/h (1 Bft) 100,00 %
12.07.2016 07:02 19,7 C 98 % 1011,8 hPa 0,0 l/m 2,7 km/h (1 Bft) SO 136 0 min 0,000 mm 0,0 UV-I 54 W/m 19,4 C 19,7 C 4,8 km/h (1 Bft) 100,00 %
12.07.2016 07:04 19,7 C 98 % 1011,7 hPa 0,0 l/m 2,0 km/h (1 Bft) SO 136 0 min 0,000 mm 0,0 UV-I 54 W/m 19,4 C 19,7 C 4,8 km/h (1 Bft) 100,00 %
12.07.2016 07:06 19,7 C 98 % 1011,8 hPa 0,0 l/m 2,6 km/h (1 Bft) SO 137 0 min 0,000 mm 0,0 UV-I 55 W/m 19,4 C 19,7 C 4,8 km/h (1 Bft) 100,00 %
12.07.2016 07:08 19,7 C 97 % 1011,7 hPa 0,0 l/m 4,0 km/h (1 Bft) S 182 0 min 0,000 mm 0,0 UV-I 59 W/m 19,2 C 19,7 C 6,4 km/h (2 Bft) 100,00 %
12.07.2016 07:10 19,7 C 97 % 1011,7 hPa 0,0 l/m 2,2 km/h (1 Bft) S 180 0 min 0,000 mm 0,0 UV-I 70 W/m 19,2 C 19,7 C 4,8 km/h (1 Bft) 100,00 %
12.07.2016 07:12 19,7 C 97 % 1011,6 hPa 0,2 l/m 1,3 km/h (1 Bft) S 180 0 min 0,000 mm 0,0 UV-I 77 W/m 19,2 C 19,7 C 3,2 km/h (1 Bft) 100,00 %
12.07.2016 07:14 19,7 C 97 % 1011,6 hPa 0,0 l/m 0,9 km/h (0 Bft) S 180 0 min 0,000 mm 0,0 UV-I 76 W/m 19,2 C 19,7 C 1,6 km/h (1 Bft) 100,00 %
12.07.2016 07:16 19,8 C 97 % 1011,6 hPa 0,0 l/m 0,0 km/h (0 Bft) S 180 0 min 0,000 mm 0,0 UV-I 75 W/m 19,3 C 19,8 C 1,6 km/h (1 Bft) 100,00 %
12.07.2016 07:18 19,8 C 97 % 1011,6 hPa 0,0 l/m 1,9 km/h (1 Bft) S 180 0 min 0,000 mm 0,0 UV-I 73 W/m 19,3 C 19,8 C 3,2 km/h (1 Bft) 98,00 %
12.07.2016 07:20 19,8 C 97 % 1011,7 hPa 0,0 l/m 2,4 km/h (1 Bft) S 180 0 min 0,000 mm 0,0 UV-I 70 W/m 19,3 C 19,8 C 3,2 km/h (1 Bft) 96,00 %
12.07.2016 07:22 19,8 C 97 % 1011,8 hPa 0,0 l/m 1,4 km/h (1 Bft) S 180 0 min 0,000 mm 0,0 UV-I 67 W/m 19,3 C 19,8 C 3,2 km/h (1 Bft) 97,73 %
12.07.2016 07:24 19,8 C 97 % 1011,8 hPa 0,0 l/m 2,0 km/h (1 Bft) S 180 0 min 0,000 mm 0,0 UV-I 61 W/m 19,3 C 19,8 C 3,2 km/h (1 Bft) 97,87 %
12.07.2016 07:26 19,8 C 97 % 1011,7 hPa 0,0 l/m 0,1 km/h (0 Bft) S 180 0 min 0,000 mm 0,0 UV-I 58 W/m 19,3 C 19,8 C 1,6 km/h (1 Bft) 96,00 %
12.07.2016 07:28 19,8 C 97 % 1011,7 hPa 0,0 l/m 0,5 km/h (0 Bft) S 180 0 min 0,000 mm 0,0 UV-I 54 W/m 19,3 C 19,8 C 1,6 km/h (1 Bft) 97,92 %
12.07.2016 07:30 19,8 C 97 % 1011,8 hPa 0,0 l/m 1,2 km/h (1 Bft) S 180 0 min 0,000 mm 0,0 UV-I 47 W/m 19,3 C 19,8 C 3,2 km/h (1 Bft) 97,14 %
12.07.2016 07:32 19,8 C 97 % 1011,8 hPa 0,0 l/m 1,8 km/h (1 Bft) S 180 0 min 0,000 mm 0,0 UV-I 41 W/m 19,3 C 19,8 C 4,8 km/h (1 Bft) 94,29 %
12.07.2016 07:34 19,8 C 97 % 1011,8 hPa 0,0 l/m 3,3 km/h (1 Bft) S 190 0 min 0,000 mm 0,0 UV-I 38 W/m 19,3 C 19,8 C 4,8 km/h (1 Bft) 98,46 %
12.07.2016 07:36 19,8 C 97 % 1011,9 hPa 0,0 l/m 2,5 km/h (1 Bft) S 190 0 min 0,000 mm 0,0 UV-I 37 W/m 19,3 C 19,8 C 4,8 km/h (1 Bft) 97,56 %
12.07.2016 07:38 19,8 C 97 % 1011,9 hPa 0,0 l/m 3,3 km/h (1 Bft) S 190 0 min 0,000 mm 0,0 UV-I 43 W/m 19,3 C 19,8 C 4,8 km/h (1 Bft) 98,00 %
12.07.2016 07:40 19,8 C 97 % 1011,9 hPa 0,0 l/m 4,0 km/h (1 Bft) S 190 0 min 0,000 mm 0,0 UV-I 51 W/m 19,3 C 19,8 C 4,8 km/h (1 Bft) 96,00 %
12.07.2016 07:42 19,8 C 97 % 1011,9 hPa 0,0 l/m 3,2 km/h (1 Bft) S 190 0 min 0,000 mm 0,0 UV-I 58 W/m 19,3 C 19,8 C 4,8 km/h (1 Bft) 97,73 %
12.07.2016 07:44 19,8 C 97 % 1011,9 hPa 0,0 l/m 3,3 km/h (1 Bft) S 190 0 min 0,000 mm 0,0 UV-I 64 W/m 19,3 C 19,8 C 4,8 km/h (1 Bft) 95,74 %
12.07.2016 07:46 19,8 C 97 % 1011,9 hPa 0,0 l/m 3,4 km/h (1 Bft) S 190 0 min 0,000 mm 0,0 UV-I 67 W/m 19,3 C 19,8 C 6,4 km/h (2 Bft) 96,00 %
12.07.2016 07:48 19,8 C 97 % 1012,0 hPa 0,0 l/m 4,3 km/h (1 Bft) S 180 0 min 0,000 mm 0,0 UV-I 68 W/m 19,3 C 19,8 C 6,4 km/h (2 Bft) 97,37 %
12.07.2016 07:50 19,8 C 97 % 1012,0 hPa 0,0 l/m 4,4 km/h (1 Bft) S-SW 201 0 min 0,000 mm 0,0 UV-I 68 W/m 19,3 C 19,8 C 6,4 km/h (2 Bft) 98,11 %
12.07.2016 07:52 19,8 C 97 % 1012,0 hPa 0,0 l/m 2,7 km/h (1 Bft) S-SW 212 0 min 0,000 mm 0,0 UV-I 67 W/m 19,3 C 19,8 C 4,8 km/h (1 Bft) 96,00 %
12.07.2016 07:54 19,7 C 97 % 1012,0 hPa 0,0 l/m 5,3 km/h (1 Bft) S 180 0 min 0,000 mm 0,0 UV-I 66 W/m 19,2 C 19,7 C 8,0 km/h (2 Bft) 100,00 %
12.07.2016 07:56 19,7 C 97 % 1012,1 hPa 0,0 l/m 6,8 km/h (2 Bft) S-SW 207 0 min 0,000 mm 0,0 UV-I 70 W/m 19,2 C 19,5 C 11,3 km/h (2 Bft) 98,11 %
12.07.2016 07:58 19,7 C 97 % 1012,1 hPa 0,0 l/m 5,6 km/h (1 Bft) S-SW 210 0 min 0,000 mm 0,0 UV-I 81 W/m 19,2 C 19,7 C 8,0 km/h (2 Bft) 100,00 %
12.07.2016 08:00 19,7 C 97 % 1012,1 hPa 0,0 l/m 5,8 km/h (2 Bft) S 186 0 min 0,000 mm 0,0 UV-I 96 W/m 19,2 C 19,7 C 11,3 km/h (2 Bft) 97,44 %
12.07.2016 08:02 19,8 C 97 % 1012,0 hPa 0,0 l/m 3,0 km/h (1 Bft) S 186 0 min 0,026 mm 0,5 UV-I 110 W/m 19,3 C 19,8 C 6,4 km/h (2 Bft) 100,00 %
12.07.2016 08:04 19,8 C 97 % 1012,0 hPa 0,0 l/m 1,5 km/h (1 Bft) S-SW 194 0 min 0,000 mm 0,5 UV-I 115 W/m 19,3 C 19,8 C 4,8 km/h (1 Bft) 100,00 %
12.07.2016 08:06 19,8 C 97 % 1012,0 hPa 0,0 l/m 4,5 km/h (1 Bft) SW 214 0 min 0,000 mm 0,6 UV-I 114 W/m 19,3 C 19,8 C 6,4 km/h (2 Bft) 100,00 %
12.07.2016 08:08 19,8 C 97 % 1012,0 hPa 0,0 l/m 3,8 km/h (1 Bft) SW 214 0 min 0,000 mm 0,6 UV-I 113 W/m 19,3 C 19,8 C 4,8 km/h (1 Bft) 100,00 %
12.07.2016 08:10 19,8 C 97 % 1012,1 hPa 0,0 l/m 4,1 km/h (1 Bft) S-SW 204 0 min 0,000 mm 0,7 UV-I 115 W/m 19,3 C 19,8 C 8,0 km/h (2 Bft) 95,74 %
12.07.2016 08:12 19,8 C 97 % 1012,1 hPa 0,0 l/m 5,4 km/h (1 Bft) S-SW 205 0 min 0,000 mm 0,7 UV-I 126 W/m 19,3 C 19,8 C 8,0 km/h (2 Bft) 97,87 %
12.07.2016 08:14 19,8 C 97 % 1012,1 hPa 0,0 l/m 3,0 km/h (1 Bft) S-SW 207 0 min 0,000 mm 0,8 UV-I 143 W/m 19,3 C 19,8 C 4,8 km/h (1 Bft) 98,00 %
12.07.2016 08:16 19,8 C 97 % 1012,0 hPa 0,0 l/m 2,1 km/h (1 Bft) S-SW 207 0 min 0,000 mm 0,9 UV-I 160 W/m 19,3 C 19,8 C 3,2 km/h (1 Bft) 100,00 %
12.07.2016 08:18 19,9 C 97 % 1012,1 hPa 0,0 l/m 1,3 km/h (1 Bft) S-SW 207 0 min 0,000 mm 1,1 UV-I 193 W/m 19,4 C 19,9 C 3,2 km/h (1 Bft) 97,37 %
12.07.2016 08:20 20,1 C 97 % 1012,0 hPa 0,0 l/m 3,1 km/h (1 Bft) S-SW 200 2 min 0,000 mm 1,1 UV-I 333 W/m 19,6 C 20,1 C 4,8 km/h (1 Bft) 98,00 %
12.07.2016 08:22 20,2 C 96 % 1012,0 hPa 0,0 l/m 3,4 km/h (1 Bft) S-SW 205 2 min 0,000 mm 1,2 UV-I 348 W/m 19,5 C 20,2 C 4,8 km/h (1 Bft) 100,00 %
12.07.2016 08:24 20,4 C 97 % 1012,0 hPa 0,0 l/m 2,4 km/h (1 Bft) SW 233 2 min 0,000 mm 1,3 UV-I 542 W/m 19,9 C 20,4 C 4,8 km/h (1 Bft) 95,74 %
12.07.2016 08:26 20,6 C 97 % 1012,0 hPa 0,0 l/m 3,1 km/h (1 Bft) W 263 2 min 0,000 mm 1,1 UV-I 387 W/m 20,1 C 20,6 C 6,4 km/h (2 Bft) 100,00 %
12.07.2016 08:28 20,7 C 95 % 1012,0 hPa 0,0 l/m 4,4 km/h (1 Bft) S-SW 211 0 min 0,000 mm 0,9 UV-I 199 W/m 19,9 C 20,7 C 6,4 km/h (2 Bft) 100,00 %
12.07.2016 08:30 20,6 C 94 % 1011,9 hPa 0,0 l/m 4,2 km/h (1 Bft) S-SW 212 0 min 0,000 mm 0,9 UV-I 190 W/m 19,6 C 20,6 C 6,4 km/h (2 Bft) 100,00 %
12.07.2016 08:32 20,6 C 94 % 1011,9 hPa 0,0 l/m 3,7 km/h (1 Bft) S 182 0 min 0,000 mm 0,9 UV-I 186 W/m 19,6 C 20,6 C 6,4 km/h (2 Bft) 100,00 %
12.07.2016 08:34 20,6 C 95 % 1011,9 hPa 0,0 l/m 2,7 km/h (1 Bft) S 184 0 min 0,000 mm 0,9 UV-I 180 W/m 19,8 C 20,6 C 4,8 km/h (1 Bft) 96,00 %
12.07.2016 08:36 20,6 C 94 % 1011,9 hPa 0,0 l/m 3,7 km/h (1 Bft) SW 227 0 min 0,000 mm 0,8 UV-I 169 W/m 19,6 C 20,6 C 6,4 km/h (2 Bft) 97,37 %
12.07.2016 08:38 20,7 C 94 % 1011,8 hPa 0,0 l/m 3,7 km/h (1 Bft) SW 224 0 min 0,000 mm 0,8 UV-I 165 W/m 19,7 C 20,7 C 6,4 km/h (2 Bft) 100,00 %
12.07.2016 08:40 20,6 C 94 % 1011,8 hPa 0,0 l/m 4,0 km/h (1 Bft) W-SW 249 0 min 0,000 mm 0,9 UV-I 168 W/m 19,6 C 20,6 C 6,4 km/h (2 Bft) 100,00 %
12.07.2016 08:42 20,6 C 94 % 1011,8 hPa 0,0 l/m 4,1 km/h (1 Bft) S-SW 207 0 min 0,000 mm 0,9 UV-I 175 W/m 19,6 C 20,6 C 6,4 km/h (2 Bft) 100,00 %
12.07.2016 08:44 20,6 C 94 % 1011,8 hPa 0,0 l/m 4,0 km/h (1 Bft) W-SW 250 0 min 0,000 mm 1,0 UV-I 178 W/m 19,6 C 20,6 C 8,0 km/h (2 Bft) 100,00 %
12.07.2016 08:46 20,7 C 94 % 1011,9 hPa 0,0 l/m 4,4 km/h (1 Bft) S-SW 207 0 min 0,000 mm 1,0 UV-I 184 W/m 19,7 C 20,7 C 6,4 km/h (2 Bft) 100,00 %
12.07.2016 08:48 20,6 C 93 % 1011,8 hPa 0,0 l/m 3,0 km/h (1 Bft) S-SW 205 0 min 0,000 mm 1,1 UV-I 188 W/m 19,4 C 20,6 C 6,4 km/h (2 Bft) 95,74 %
12.07.2016 08:50 20,7 C 94 % 1011,8 hPa 0,0 l/m 3,8 km/h (1 Bft) W 275 0 min 0,000 mm 1,2 UV-I 198 W/m 19,7 C 20,7 C 6,4 km/h (2 Bft) 100,00 %
12.07.2016 08:52 20,7 C 93 % 1011,8 hPa 0,0 l/m 4,0 km/h (1 Bft) W-SW 254 0 min 0,000 mm 1,3 UV-I 217 W/m 19,5 C 20,7 C 6,4 km/h (2 Bft) 100,00 %
12.07.2016 08:54 20,8 C 94 % 1011,8 hPa 0,0 l/m 2,3 km/h (1 Bft) W 271 0 min 0,000 mm 1,4 UV-I 244 W/m 19,8 C 20,8 C 3,2 km/h (1 Bft) 100,00 %
12.07.2016 08:56 20,9 C 94 % 1011,7 hPa 0,0 l/m 5,0 km/h (1 Bft) W 274 0 min 0,000 mm 1,8 UV-I 286 W/m 19,9 C 20,9 C 9,7 km/h (2 Bft) 100,00 %
12.07.2016 08:58 20,9 C 92 % 1011,8 hPa 0,0 l/m 6,8 km/h (2 Bft) W 269 2 min 0,000 mm 2,0 UV-I 563 W/m 19,5 C 20,8 C 9,7 km/h (2 Bft) 100,00 %
12.07.2016 09:00 21,1 C 92 % 1011,7 hPa 0,0 l/m 5,7 km/h (1 Bft) W-SW 252 2 min 0,127 mm 1,7 UV-I 416 W/m 19,7 C 21,1 C 11,3 km/h (2 Bft) 100,00 %
12.07.2016 09:02 21,0 C 91 % 1011,7 hPa 0,0 l/m 7,5 km/h (2 Bft) S-SW 196 0 min 0,000 mm 1,6 UV-I 223 W/m 19,5 C 20,6 C 11,3 km/h (2 Bft) 97,73 %
12.07.2016 09:04 21,1 C 91 % 1011,7 hPa 0,0 l/m 4,5 km/h (1 Bft) W-SW 257 2 min 0,000 mm 2,1 UV-I 348 W/m 19,6 C 21,1 C 8,0 km/h (2 Bft) 98,11 %
12.07.2016 09:06 21,3 C 90 % 1011,6 hPa 0,0 l/m 5,0 km/h (1 Bft) W 266 2 min 0,000 mm 2,3 UV-I 553 W/m 19,6 C 21,3 C 8,0 km/h (2 Bft) 100,00 %
12.07.2016 09:08 21,5 C 92 % 1011,7 hPa 0,0 l/m 3,8 km/h (1 Bft) W 259 2 min 0,000 mm 2,5 UV-I 399 W/m 20,1 C 21,5 C 6,4 km/h (2 Bft) 100,00 %
12.07.2016 09:10 21,6 C 91 % 1011,6 hPa 0,0 l/m 4,9 km/h (1 Bft) W 273 2 min 0,000 mm 2,5 UV-I 596 W/m 20,1 C 21,6 C 9,7 km/h (2 Bft) 95,74 %
12.07.2016 09:12 21,6 C 89 % 1011,6 hPa 0,0 l/m 8,3 km/h (2 Bft) W 262 2 min 0,000 mm 2,2 UV-I 361 W/m 19,7 C 20,9 C 12,9 km/h (3 Bft) 97,87 %
12.07.2016 09:14 21,5 C 88 % 1011,6 hPa 0,0 l/m 2,6 km/h (1 Bft) W 263 2 min 0,000 mm 2,2 UV-I 394 W/m 19,4 C 21,5 C 6,4 km/h (2 Bft) 97,37 %
12.07.2016 09:16 21,4 C 89 % 1011,6 hPa 0,0 l/m 2,8 km/h (1 Bft) W-SW 243 0 min 0,000 mm 1,9 UV-I 261 W/m 19,5 C 21,4 C 9,7 km/h (2 Bft) 95,74 %
12.07.2016 09:18 21,4 C 88 % 1011,6 hPa 0,0 l/m 5,6 km/h (1 Bft) S-SW 207 0 min 0,000 mm 2,3 UV-I 303 W/m 19,3 C 21,4 C 9,7 km/h (2 Bft) 98,00 %
12.07.2016 09:20 21,4 C 88 % 1011,6 hPa 0,0 l/m 1,2 km/h (1 Bft) S-SW 205 2 min 0,000 mm 2,4 UV-I 339 W/m 19,3 C 21,4 C 3,2 km/h (1 Bft) 97,44 %
12.07.2016 09:22 21,6 C 88 % 1011,6 hPa 0,0 l/m 3,4 km/h (1 Bft) S-SW 201 2 min 0,000 mm 2,6 UV-I 426 W/m 19,5 C 21,6 C 6,4 km/h (2 Bft) 98,00 %
12.07.2016 09:24 21,7 C 88 % 1011,5 hPa 0,0 l/m 5,3 km/h (1 Bft) W-SW 238 2 min 0,000 mm 2,9 UV-I 534 W/m 19,6 C 21,7 C 9,7 km/h (2 Bft) 94,34 %
12.07.2016 09:26 21,9 C 88 % 1011,6 hPa 0,0 l/m 5,0 km/h (1 Bft) S-SW 198 2 min 0,000 mm 2,9 UV-I 533 W/m 19,8 C 21,9 C 9,7 km/h (2 Bft) 98,00 %
12.07.2016 09:28 21,9 C 84 % 1011,6 hPa 0,0 l/m 4,6 km/h (1 Bft) S 173 2 min 0,000 mm 3,0 UV-I 531 W/m 19,1 C 21,9 C 8,0 km/h (2 Bft) 97,37 %
12.07.2016 09:30 21,9 C 84 % 1011,5 hPa 0,0 l/m 8,0 km/h (2 Bft) SW 227 2 min 0,000 mm 3,1 UV-I 539 W/m 19,1 C 21,3 C 12,9 km/h (3 Bft) 94,64 %
12.07.2016 09:32 22,1 C 86 % 1011,5 hPa 0,0 l/m 4,9 km/h (1 Bft) W 260 2 min 0,000 mm 3,2 UV-I 553 W/m 19,6 C 22,1 C 9,7 km/h (2 Bft) 97,14 %
12.07.2016 09:34 22,1 C 83 % 1011,5 hPa 0,0 l/m 2,6 km/h (1 Bft) W 277 2 min 0,000 mm 3,0 UV-I 460 W/m 19,1 C 22,1 C 6,4 km/h (2 Bft) 98,31 %
12.07.2016 09:36 22,2 C 84 % 1011,5 hPa 0,0 l/m 5,2 km/h (1 Bft) W 261 2 min 0,000 mm 3,3 UV-I 518 W/m 19,4 C 22,2 C 12,9 km/h (3 Bft) 97,37 %
12.07.2016 09:38 22,4 C 85 % 1011,5 hPa 0,0 l/m 5,9 km/h (2 Bft) S-SW 205 2 min 0,000 mm 3,4 UV-I 646 W/m 19,7 C 22,4 C 12,9 km/h (3 Bft) 98,00 %
12.07.2016 09:40 22,4 C 85 % 1011,4 hPa 0,0 l/m 5,8 km/h (2 Bft) SW 223 2 min 0,000 mm 3,6 UV-I 697 W/m 19,7 C 22,4 C 9,7 km/h (2 Bft) 96,00 %
12.07.2016 09:42 22,5 C 83 % 1011,3 hPa 0,0 l/m 2,3 km/h (1 Bft) SW 214 2 min 0,000 mm 3,7 UV-I 732 W/m 19,5 C 22,5 C 4,8 km/h (1 Bft) 98,00 %
12.07.2016 09:44 22,5 C 81 % 1011,3 hPa 0,0 l/m 2,7 km/h (1 Bft) S 185 2 min 0,000 mm 3,9 UV-I 779 W/m 19,1 C 22,5 C 4,8 km/h (1 Bft) 97,87 %
12.07.2016 09:46 22,6 C 82 % 1011,4 hPa 0,0 l/m 4,9 km/h (1 Bft) W 266 2 min 0,000 mm 3,9 UV-I 840 W/m 19,4 C 22,6 C 11,3 km/h (2 Bft) 97,14 %
12.07.2016 09:48 22,7 C 82 % 1011,4 hPa 0,0 l/m 2,3 km/h (1 Bft) W 269 2 min 0,000 mm 2,9 UV-I 868 W/m 19,5 C 22,7 C 6,4 km/h (2 Bft) 98,21 %
12.07.2016 09:50 22,7 C 81 % 1011,4 hPa 0,0 l/m 6,6 km/h (2 Bft) SW 225 0 min 0,000 mm 2,7 UV-I 341 W/m 19,3 C 22,6 C 11,3 km/h (2 Bft) 100,00 %
12.07.2016 09:52 22,5 C 79 % 1011,4 hPa 0,0 l/m 8,4 km/h (2 Bft) SW 236 0 min 0,000 mm 2,7 UV-I 359 W/m 18,7 C 21,9 C 12,9 km/h (3 Bft) 100,00 %
12.07.2016 09:54 22,4 C 80 % 1011,4 hPa 0,0 l/m 7,4 km/h (2 Bft) S 190 0 min 0,000 mm 2,7 UV-I 358 W/m 18,8 C 22,1 C 11,3 km/h (2 Bft) 100,00 %
12.07.2016 09:56 22,3 C 77 % 1011,4 hPa 0,0 l/m 8,8 km/h (2 Bft) W 261 2 min 0,000 mm 2,8 UV-I 391 W/m 18,1 C 21,5 C 16,1 km/h (3 Bft) 97,44 %
12.07.2016 09:58 22,4 C 82 % 1011,3 hPa 0,0 l/m 5,9 km/h (2 Bft) W 270 2 min 0,000 mm 3,4 UV-I 559 W/m 19,2 C 22,4 C 9,7 km/h (2 Bft) 97,87 %
12.07.2016 10:00 22,7 C 81 % 1011,2 hPa 0,0 l/m 3,6 km/h (1 Bft) W-SW 254 2 min 0,000 mm 3,8 UV-I 928 W/m 19,3 C 22,7 C 9,7 km/h (2 Bft) 100,00 %
12.07.2016 10:02 22,8 C 81 % 1011,3 hPa 0,0 l/m 4,0 km/h (1 Bft) W-SW 240 2 min 0,305 mm 3,0 UV-I 789 W/m 19,4 C 22,8 C 8,0 km/h (2 Bft) 100,00 %
12.07.2016 10:04 22,8 C 79 % 1011,3 hPa 0,0 l/m 5,7 km/h (1 Bft) W 264 0 min 0,000 mm 2,4 UV-I 376 W/m 19,0 C 22,8 C 9,7 km/h (2 Bft) 100,00 %
12.07.2016 10:06 22,8 C 81 % 1011,4 hPa 0,0 l/m 5,6 km/h (1 Bft) W-SW 248 2 min 0,000 mm 2,3 UV-I 397 W/m 19,4 C 22,8 C 9,7 km/h (2 Bft) 100,00 %
12.07.2016 10:08 22,7 C 82 % 1011,4 hPa 0,0 l/m 5,1 km/h (1 Bft) SW 215 0 min 0,000 mm 2,2 UV-I 336 W/m 19,5 C 22,7 C 8,0 km/h (2 Bft) 100,00 %
12.07.2016 10:10 22,6 C 81 % 1011,4 hPa 0,0 l/m 3,5 km/h (1 Bft) S-SW 209 0 min 0,000 mm 2,4 UV-I 350 W/m 19,2 C 22,6 C 8,0 km/h (2 Bft) 100,00 %
12.07.2016 10:12 22,5 C 80 % 1011,4 hPa 0,0 l/m 3,2 km/h (1 Bft) NW 313 0 min 0,000 mm 2,4 UV-I 351 W/m 18,9 C 22,5 C 6,4 km/h (2 Bft) 100,00 %
12.07.2016 10:14 22,5 C 82 % 1011,4 hPa 0,0 l/m 2,3 km/h (1 Bft) W-NW 296 0 min 0,000 mm 2,4 UV-I 340 W/m 19,3 C 22,5 C 4,8 km/h (1 Bft) 97,14 %
12.07.2016 10:16 22,4 C 81 % 1011,4 hPa 0,0 l/m 2,3 km/h (1 Bft) W 275 0 min 0,000 mm 2,2 UV-I 297 W/m 19,0 C 22,4 C 4,8 km/h (1 Bft) 100,00 %
12.07.2016 10:18 22,3 C 81 % 1011,3 hPa 0,0 l/m 2,0 km/h (1 Bft) W 262 0 min 0,000 mm 1,9 UV-I 248 W/m 18,9 C 22,3 C 4,8 km/h (1 Bft) 100,00 %
12.07.2016 10:20 22,3 C 83 % 1011,4 hPa 0,0 l/m 2,4 km/h (1 Bft) W-SW 248 0 min 0,000 mm 1,7 UV-I 215 W/m 19,3 C 22,3 C 4,8 km/h (1 Bft) 100,00 %
12.07.2016 10:22 22,3 C 84 % 1011,3 hPa 0,0 l/m 3,2 km/h (1 Bft) W 264 0 min 0,000 mm 1,6 UV-I 196 W/m 19,5 C 22,3 C 6,4 km/h (2 Bft) 100,00 %
12.07.2016 10:24 22,2 C 83 % 1011,4 hPa 0,0 l/m 3,3 km/h (1 Bft) W 265 0 min 0,000 mm 1,7 UV-I 191 W/m 19,2 C 22,2 C 4,8 km/h (1 Bft) 100,00 %
12.07.2016 10:26 22,1 C 84 % 1011,3 hPa 0,0 l/m 2,4 km/h (1 Bft) W 280 0 min 0,000 mm 1,9 UV-I 201 W/m 19,3 C 22,1 C 4,8 km/h (1 Bft) 97,87 %
12.07.2016 10:28 22,1 C 84 % 1011,3 hPa 0,0 l/m 2,7 km/h (1 Bft) NW 325 0 min 0,000 mm 2,1 UV-I 221 W/m 19,3 C 22,1 C 4,8 km/h (1 Bft) 100,00 %
12.07.2016 10:30 22,0 C 84 % 1011,4 hPa 0,0 l/m 3,0 km/h (1 Bft) W-NW 298 0 min 0,000 mm 2,2 UV-I 236 W/m 19,2 C 22,0 C 6,4 km/h (2 Bft) 100,00 %
12.07.2016 10:32 22,1 C 86 % 1011,3 hPa 0,0 l/m 1,4 km/h (1 Bft) W-NW 298 0 min 0,000 mm 2,2 UV-I 239 W/m 19,6 C 22,1 C 3,2 km/h (1 Bft) 97,87 %
12.07.2016 10:34 22,1 C 86 % 1011,3 hPa 0,0 l/m 1,1 km/h (1 Bft) W-NW 296 0 min 0,000 mm 2,2 UV-I 238 W/m 19,6 C 22,1 C 3,2 km/h (1 Bft) 100,00 %
12.07.2016 10:36 22,1 C 86 % 1011,3 hPa 0,0 l/m 2,3 km/h (1 Bft) SW 219 0 min 0,000 mm 2,3 UV-I 247 W/m 19,6 C 22,1 C 4,8 km/h (1 Bft) 100,00 %
12.07.2016 10:38 22,1 C 86 % 1011,3 hPa 0,0 l/m 3,6 km/h (1 Bft) W-SW 258 0 min 0,000 mm 2,7 UV-I 289 W/m 19,6 C 22,1 C 11,3 km/h (2 Bft) 100,00 %
12.07.2016 10:40 22,1 C 85 % 1011,3 hPa 0,0 l/m 2,9 km/h (1 Bft) W-SW 244 0 min 0,000 mm 3,4 UV-I 399 W/m 19,5 C 22,1 C 4,8 km/h (1 Bft) 100,00 %
12.07.2016 10:42 22,2 C 85 % 1011,2 hPa 0,0 l/m 2,5 km/h (1 Bft) NW 311 2 min 0,000 mm 4,7 UV-I 636 W/m 19,6 C 22,2 C 4,8 km/h (1 Bft) 98,15 %
12.07.2016 10:44 22,3 C 84 % 1011,2 hPa 0,0 l/m 3,5 km/h (1 Bft) W-NW 284 2 min 0,000 mm 4,2 UV-I 570 W/m 19,5 C 22,3 C 6,4 km/h (2 Bft) 100,00 %
12.07.2016 10:46 22,6 C 87 % 1011,2 hPa 0,0 l/m 1,2 km/h (1 Bft) W-NW 284 2 min 0,000 mm 4,9 UV-I 934 W/m 20,3 C 22,6 C 4,8 km/h (1 Bft) 100,00 %
12.07.2016 10:48 22,8 C 83 % 1011,2 hPa 0,0 l/m 1,9 km/h (1 Bft) W 277 2 min 0,000 mm 3,7 UV-I 462 W/m 19,8 C 22,8 C 4,8 km/h (1 Bft) 100,00 %
12.07.2016 10:50 22,8 C 84 % 1011,1 hPa 0,0 l/m 1,5 km/h (1 Bft) W 263 2 min 0,000 mm 3,9 UV-I 457 W/m 19,9 C 22,8 C 3,2 km/h (1 Bft) 100,00 %
12.07.2016 10:52 23,0 C 85 % 1011,1 hPa 0,0 l/m 0,8 km/h (0 Bft) W 273 2 min 0,000 mm 3,6 UV-I 456 W/m 20,3 C 23,0 C 3,2 km/h (1 Bft) 100,00 %
12.07.2016 10:54 23,1 C 81 % 1011,1 hPa 0,0 l/m 1,6 km/h (1 Bft) N-NW 346 2 min 0,000 mm 3,9 UV-I 474 W/m 19,7 C 23,1 C 4,8 km/h (1 Bft) 100,00 %
12.07.2016 10:56 23,1 C 80 % 1011,2 hPa 0,0 l/m 2,3 km/h (1 Bft) W-NW 300 2 min 0,000 mm 4,0 UV-I 551 W/m 19,5 C 23,1 C 4,8 km/h (1 Bft) 100,00 %
12.07.2016 10:58 23,1 C 79 % 1011,2 hPa 0,0 l/m 1,5 km/h (1 Bft) W-NW 300 2 min 0,000 mm 3,6 UV-I 525 W/m 19,3 C 23,1 C 4,8 km/h (1 Bft) 100,00 %
12.07.2016 11:00 23,0 C 79 % 1011,2 hPa 0,0 l/m 1,6 km/h (1 Bft) W-NW 300 0 min 0,228 mm 3,3 UV-I 401 W/m 19,2 C 23,0 C 3,2 km/h (1 Bft) 100,00 %
12.07.2016 11:02 23,0 C 80 % 1011,2 hPa 0,0 l/m 0,7 km/h (0 Bft) W-NW 301 0 min 0,000 mm 3,4 UV-I 401 W/m 19,4 C 23,0 C 3,2 km/h (1 Bft) 100,00 %
12.07.2016 11:04 23,0 C 81 % 1011,3 hPa 0,0 l/m 1,3 km/h (1 Bft) W-NW 282 0 min 0,000 mm 3,6 UV-I 411 W/m 19,6 C 23,0 C 4,8 km/h (1 Bft) 100,00 %
12.07.2016 11:06 23,1 C 81 % 1011,3 hPa 0,0 l/m 3,0 km/h (1 Bft) W-NW 297 0 min 0,000 mm 3,6 UV-I 414 W/m 19,7 C 23,1 C 4,8 km/h (1 Bft) 100,00 %
12.07.2016 11:08 23,2 C 81 % 1011,4 hPa 0,0 l/m 4,4 km/h (1 Bft) W-NW 284 0 min 0,000 mm 3,9 UV-I 413 W/m 19,8 C 23,2 C 8,0 km/h (2 Bft) 100,00 %
12.07.2016 11:10 23,1 C 80 % 1011,3 hPa 0,0 l/m 2,7 km/h (1 Bft) W-NW 286 2 min 0,000 mm 5,6 UV-I 460 W/m 19,5 C 23,1 C 4,8 km/h (1 Bft) 100,00 %
12.07.2016 11:12 23,3 C 80 % 1011,3 hPa 0,0 l/m 3,2 km/h (1 Bft) W 271 2 min 0,000 mm 6,1 UV-I 773 W/m 19,6 C 23,3 C 9,7 km/h (2 Bft) 98,39 %
12.07.2016 11:14 23,5 C 80 % 1011,2 hPa 0,0 l/m 5,0 km/h (1 Bft) W-NW 298 2 min 0,000 mm 5,3 UV-I 723 W/m 19,8 C 23,5 C 9,7 km/h (2 Bft) 97,87 %
12.07.2016 11:16 23,6 C 80 % 1011,2 hPa 0,0 l/m 5,0 km/h (1 Bft) W 280 2 min 0,000 mm 5,4 UV-I 698 W/m 19,9 C 23,6 C 11,3 km/h (2 Bft) 95,74 %
12.07.2016 11:18 23,7 C 78 % 1011,2 hPa 0,0 l/m 3,1 km/h (1 Bft) NW 308 2 min 0,000 mm 5,3 UV-I 725 W/m 19,6 C 23,7 C 9,7 km/h (2 Bft) 98,11 %
12.07.2016 11:20 23,8 C 79 % 1011,2 hPa 0,0 l/m 2,4 km/h (1 Bft) W-NW 288 2 min 0,000 mm 5,5 UV-I 747 W/m 19,9 C 23,8 C 4,8 km/h (1 Bft) 97,56 %
12.07.2016 11:22 23,8 C 76 % 1011,2 hPa 0,0 l/m 2,7 km/h (1 Bft) NW 315 2 min 0,000 mm 5,1 UV-I 740 W/m 19,3 C 23,8 C 4,8 km/h (1 Bft) 98,00 %
12.07.2016 11:24 23,7 C 77 % 1011,2 hPa 0,0 l/m 1,6 km/h (1 Bft) NW 315 2 min 0,000 mm 4,0 UV-I 607 W/m 19,4 C 23,7 C 3,2 km/h (1 Bft) 95,12 %
12.07.2016 11:26 23,4 C 76 % 1011,2 hPa 0,0 l/m 1,5 km/h (1 Bft) N 355 2 min 0,000 mm 3,9 UV-I 469 W/m 18,9 C 23,4 C 3,2 km/h (1 Bft) 95,74 %
12.07.2016 11:28 23,4 C 77 % 1011,2 hPa 0,0 l/m 2,2 km/h (1 Bft) NO 37 2 min 0,000 mm 4,3 UV-I 500 W/m 19,1 C 23,4 C 4,8 km/h (1 Bft) 96,00 %
12.07.2016 11:30 23,6 C 78 % 1011,2 hPa 0,0 l/m 2,0 km/h (1 Bft) W-NW 285 2 min 0,000 mm 4,5 UV-I 549 W/m 19,5 C 23,6 C 3,2 km/h (1 Bft) 97,87 %
12.07.2016 11:32 23,8 C 77 % 1011,2 hPa 0,0 l/m 1,8 km/h (1 Bft) W 273 2 min 0,000 mm 4,7 UV-I 580 W/m 19,5 C 23,8 C 3,2 km/h (1 Bft) 98,11 %
12.07.2016 11:34 23,8 C 77 % 1011,2 hPa 0,0 l/m 2,0 km/h (1 Bft) W 277 2 min 0,000 mm 4,4 UV-I 513 W/m 19,5 C 23,8 C 4,8 km/h (1 Bft) 97,14 %
12.07.2016 11:36 23,7 C 76 % 1011,2 hPa 0,0 l/m 4,1 km/h (1 Bft) N-NW 327 2 min 0,000 mm 4,1 UV-I 518 W/m 19,2 C 23,7 C 8,0 km/h (2 Bft) 98,00 %
12.07.2016 11:38 23,6 C 76 % 1011,2 hPa 0,0 l/m 5,1 km/h (1 Bft) NW 311 0 min 0,000 mm 3,7 UV-I 437 W/m 19,1 C 23,6 C 8,0 km/h (2 Bft) 98,00 %
12.07.2016 11:40 23,5 C 76 % 1011,2 hPa 0,0 l/m 4,8 km/h (1 Bft) NW 317 0 min 0,000 mm 3,3 UV-I 393 W/m 19,0 C 23,5 C 9,7 km/h (2 Bft) 96,23 %
12.07.2016 11:42 23,4 C 79 % 1011,2 hPa 0,0 l/m 2,0 km/h (1 Bft) N-NW 339 0 min 0,000 mm 3,1 UV-I 377 W/m 19,5 C 23,4 C 4,8 km/h (1 Bft) 100,00 %
12.07.2016 11:44 23,4 C 78 % 1011,2 hPa 0,0 l/m 0,9 km/h (0 Bft) NW 325 0 min 0,000 mm 3,1 UV-I 362 W/m 19,3 C 23,4 C 3,2 km/h (1 Bft) 96,23 %
12.07.2016 11:46 23,4 C 77 % 1011,2 hPa 0,0 l/m 1,9 km/h (1 Bft) NW 311 0 min 0,000 mm 3,0 UV-I 352 W/m 19,1 C 23,4 C 3,2 km/h (1 Bft) 96,00 %
12.07.2016 11:48 23,4 C 77 % 1011,2 hPa 0,0 l/m 3,5 km/h (1 Bft) W 260 0 min 0,000 mm 3,0 UV-I 345 W/m 19,1 C 23,4 C 6,4 km/h (2 Bft) 100,00 %
12.07.2016 11:50 23,3 C 77 % 1011,1 hPa 0,0 l/m 3,9 km/h (1 Bft) W 281 0 min 0,000 mm 3,0 UV-I 339 W/m 19,0 C 23,3 C 8,0 km/h (2 Bft) 100,00 %
12.07.2016 11:52 23,3 C 79 % 1011,1 hPa 0,0 l/m 2,9 km/h (1 Bft) W-SW 252 0 min 0,000 mm 3,1 UV-I 340 W/m 19,4 C 23,3 C 4,8 km/h (1 Bft) 100,00 %
12.07.2016 11:54 23,4 C 79 % 1011,2 hPa 0,0 l/m 3,4 km/h (1 Bft) N-NW 348 0 min 0,000 mm 3,3 UV-I 341 W/m 19,5 C 23,4 C 6,4 km/h (2 Bft) 97,87 %
12.07.2016 11:56 23,4 C 78 % 1011,2 hPa 0,0 l/m 2,4 km/h (1 Bft) NW 315 0 min 0,000 mm 3,5 UV-I 386 W/m 19,3 C 23,4 C 6,4 km/h (2 Bft) 98,00 %
12.07.2016 11:58 23,6 C 79 % 1011,2 hPa 0,0 l/m 1,6 km/h (1 Bft) N-NW 348 2 min 0,000 mm 4,0 UV-I 527 W/m 19,7 C 23,6 C 3,2 km/h (1 Bft) 100,00 %
12.07.2016 12:00 23,6 C 79 % 1011,2 hPa 0,0 l/m 3,7 km/h (1 Bft) NW 307 0 min 0,330 mm 3,8 UV-I 446 W/m 19,7 C 23,6 C 9,7 km/h (2 Bft) 100,00 %
12.07.2016 12:02 23,6 C 77 % 1011,2 hPa 0,0 l/m 5,3 km/h (1 Bft) N 355 0 min 0,000 mm 3,9 UV-I 439 W/m 19,3 C 23,6 C 11,3 km/h (2 Bft) 98,00 %
12.07.2016 12:04 23,6 C 81 % 1011,1 hPa 0,0 l/m 1,7 km/h (1 Bft) N 360 2 min 0,000 mm 5,6 UV-I 483 W/m 20,1 C 23,6 C 4,8 km/h (1 Bft) 100,00 %
12.07.2016 12:06 23,8 C 77 % 1011,1 hPa 0,0 l/m 4,1 km/h (1 Bft) W-NW 296 2 min 0,000 mm 7,5 UV-I 942 W/m 19,5 C 23,8 C 8,0 km/h (2 Bft) 100,00 %
12.07.2016 12:08 24,1 C 78 % 1011,1 hPa 0,0 l/m 6,0 km/h (2 Bft) W-NW 291 2 min 0,000 mm 7,9 UV-I 1234 W/m 20,0 C 24,1 C 11,3 km/h (2 Bft) 100,00 %
12.07.2016 12:10 24,4 C 78 % 1011,1 hPa 0,0 l/m 4,2 km/h (1 Bft) N-NW 335 2 min 0,000 mm 7,7 UV-I 1193 W/m 20,3 C 24,4 C 9,7 km/h (2 Bft) 100,00 %
12.07.2016 12:12 24,8 C 78 % 1011,0 hPa 0,0 l/m 4,2 km/h (1 Bft) N 9 2 min 0,000 mm 6,1 UV-I 1070 W/m 20,7 C 24,8 C 11,3 km/h (2 Bft) 97,87 %
12.07.2016 12:14 25,0 C 74 % 1010,9 hPa 0,0 l/m 4,6 km/h (1 Bft) N-NW 340 2 min 0,000 mm 6,1 UV-I 1032 W/m 20,0 C 25,0 C 8,0 km/h (2 Bft) 100,00 %
12.07.2016 12:16 24,7 C 75 % 1010,8 hPa 0,0 l/m 2,0 km/h (1 Bft) N 355 2 min 0,000 mm 4,4 UV-I 517 W/m 20,0 C 24,7 C 3,2 km/h (1 Bft) 100,00 %
12.07.2016 12:18 24,5 C 77 % 1010,8 hPa 0,0 l/m 2,0 km/h (1 Bft) N 350 0 min 0,000 mm 3,4 UV-I 379 W/m 20,2 C 24,5 C 4,8 km/h (1 Bft) 100,00 %
12.07.2016 12:20 24,3 C 76 % 1010,8 hPa 0,0 l/m 3,3 km/h (1 Bft) NW 311 0 min 0,000 mm 3,5 UV-I 389 W/m 19,8 C 24,3 C 14,5 km/h (3 Bft) 100,00 %
12.07.2016 12:22 24,1 C 76 % 1010,8 hPa 0,0 l/m 3,7 km/h (1 Bft) N 351 0 min 0,000 mm 3,8 UV-I 408 W/m 19,6 C 24,1 C 8,0 km/h (2 Bft) 100,00 %
12.07.2016 12:24 23,9 C 75 % 1010,8 hPa 0,0 l/m 3,2 km/h (1 Bft) W-NW 292 0 min 0,000 mm 3,8 UV-I 421 W/m 19,2 C 23,9 C 8,0 km/h (2 Bft) 100,00 %
12.07.2016 12:26 23,8 C 78 % 1010,9 hPa 0,0 l/m 1,1 km/h (1 Bft) W-NW 292 0 min 0,000 mm 3,7 UV-I 395 W/m 19,7 C 23,8 C 4,8 km/h (1 Bft) 100,00 %
12.07.2016 12:28 23,8 C 77 % 1010,9 hPa 0,0 l/m 1,8 km/h (1 Bft) W 275 0 min 0,000 mm 3,6 UV-I 368 W/m 19,5 C 23,8 C 4,8 km/h (1 Bft) 100,00 %
12.07.2016 12:30 23,7 C 77 % 1011,0 hPa 0,0 l/m 3,6 km/h (1 Bft) N-NW 338 0 min 0,000 mm 3,4 UV-I 352 W/m 19,4 C 23,7 C 9,7 km/h (2 Bft) 100,00 %
12.07.2016 12:32 23,7 C 77 % 1011,0 hPa 0,0 l/m 3,0 km/h (1 Bft) NW 312 0 min 0,000 mm 3,3 UV-I 344 W/m 19,4 C 23,7 C 8,0 km/h (2 Bft) 100,00 %
12.07.2016 12:34 23,7 C 76 % 1011,1 hPa 0,0 l/m 2,0 km/h (1 Bft) N-NW 340 0 min 0,000 mm 3,2 UV-I 338 W/m 19,2 C 23,7 C 4,8 km/h (1 Bft) 100,00 %
12.07.2016 12:36 23,6 C 77 % 1011,0 hPa 0,0 l/m 3,5 km/h (1 Bft) N 5 0 min 0,000 mm 3,0 UV-I 316 W/m 19,3 C 23,6 C 6,4 km/h (2 Bft) 100,00 %
12.07.2016 12:38 23,6 C 77 % 1011,0 hPa 0,0 l/m 3,9 km/h (1 Bft) N-NW 344 0 min 0,000 mm 3,3 UV-I 329 W/m 19,3 C 23,6 C 8,0 km/h (2 Bft) 100,00 %
12.07.2016 12:40 23,6 C 79 % 1010,9 hPa 0,0 l/m 2,2 km/h (1 Bft) SW 234 0 min 0,000 mm 4,0 UV-I 415 W/m 19,7 C 23,6 C 6,4 km/h (2 Bft) 100,00 %
12.07.2016 12:42 23,8 C 76 % 1010,9 hPa 0,0 l/m 3,2 km/h (1 Bft) NW 322 2 min 0,000 mm 5,0 UV-I 544 W/m 19,3 C 23,8 C 9,7 km/h (2 Bft) 98,11 %
12.07.2016 12:44 24,0 C 77 % 1010,8 hPa 0,0 l/m 1,3 km/h (1 Bft) N 355 2 min 0,000 mm 5,0 UV-I 557 W/m 19,7 C 24,0 C 3,2 km/h (1 Bft) 97,37 %
12.07.2016 12:46 24,1 C 74 % 1010,8 hPa 0,0 l/m 3,2 km/h (1 Bft) S-SW 213 0 min 0,000 mm 4,3 UV-I 436 W/m 19,2 C 24,1 C 6,4 km/h (2 Bft) 100,00 %
12.07.2016 12:48 24,1 C 75 % 1010,8 hPa 0,0 l/m 4,1 km/h (1 Bft) W 280 0 min 0,000 mm 4,6 UV-I 468 W/m 19,4 C 24,1 C 8,0 km/h (2 Bft) 100,00 %
12.07.2016 12:50 24,1 C 74 % 1010,7 hPa 0,0 l/m 1,8 km/h (1 Bft) N-NW 332 0 min 0,000 mm 4,4 UV-I 468 W/m 19,2 C 24,1 C 6,4 km/h (2 Bft) 100,00 %
12.07.2016 12:52 24,2 C 75 % 1010,7 hPa 0,0 l/m 0,7 km/h (0 Bft) W 278 0 min 0,000 mm 4,6 UV-I 482 W/m 19,5 C 24,2 C 4,8 km/h (1 Bft) 100,00 %
12.07.2016 12:54 24,2 C 75 % 1010,7 hPa 0,0 l/m 5,3 km/h (1 Bft) W 269 2 min 0,000 mm 5,1 UV-I 511 W/m 19,5 C 24,2 C 16,1 km/h (3 Bft) 100,00 %
12.07.2016 12:56 24,3 C 71 % 1010,7 hPa 0,0 l/m 6,3 km/h (2 Bft) N-NW 329 2 min 0,000 mm 5,3 UV-I 580 W/m 18,7 C 24,3 C 12,9 km/h (3 Bft) 100,00 %
12.07.2016 12:58 24,2 C 72 % 1010,8 hPa 0,0 l/m 2,6 km/h (1 Bft) N-NW 342 2 min 0,000 mm 5,3 UV-I 593 W/m 18,8 C 24,2 C 6,4 km/h (2 Bft) 98,00 %
12.07.2016 13:00 24,4 C 74 % 1010,9 hPa 0,0 l/m 1,2 km/h (1 Bft) N-NO 26 2 min 0,356 mm 5,2 UV-I 553 W/m 19,5 C 24,4 C 3,2 km/h (1 Bft) 100,00 %
12.07.2016 13:02 24,6 C 74 % 1010,8 hPa 0,0 l/m 1,9 km/h (1 Bft) NW 308 2 min 0,000 mm 6,1 UV-I 609 W/m 19,6 C 24,6 C 3,2 km/h (1 Bft) 97,37 %
12.07.2016 13:04 24,9 C 77 % 1010,8 hPa 0,0 l/m 0,4 km/h (0 Bft) NW 313 2 min 0,000 mm 7,9 UV-I 613 W/m 20,6 C 24,9 C 3,2 km/h (1 Bft) 98,31 %
12.07.2016 13:06 25,1 C 70 % 1010,7 hPa 0,0 l/m 3,2 km/h (1 Bft) SW 215 2 min 0,000 mm 5,8 UV-I 636 W/m 19,2 C 25,1 C 6,4 km/h (2 Bft) 97,37 %
12.07.2016 13:08 24,9 C 71 % 1010,7 hPa 0,0 l/m 7,1 km/h (2 Bft) N-NW 337 2 min 0,000 mm 5,2 UV-I 529 W/m 19,3 C 24,7 C 11,3 km/h (2 Bft) 98,11 %
12.07.2016 13:10 24,7 C 73 % 1010,7 hPa 0,0 l/m 3,2 km/h (1 Bft) N-NO 22 0 min 0,000 mm 4,4 UV-I 448 W/m 19,5 C 24,7 C 8,0 km/h (2 Bft) 97,87 %
12.07.2016 13:12 24,7 C 74 % 1010,7 hPa 0,0 l/m 3,3 km/h (1 Bft) N-NO 23 2 min 0,000 mm 4,7 UV-I 502 W/m 19,7 C 24,7 C 8,0 km/h (2 Bft) 97,22 %
12.07.2016 13:14 24,5 C 71 % 1010,7 hPa 0,0 l/m 6,7 km/h (2 Bft) W-NW 286 0 min 0,000 mm 4,1 UV-I 433 W/m 18,9 C 24,4 C 14,5 km/h (3 Bft) 98,11 %
12.07.2016 13:16 24,3 C 73 % 1010,7 hPa 0,0 l/m 1,0 km/h (0 Bft) W-NW 282 0 min 0,000 mm 3,4 UV-I 356 W/m 19,1 C 24,3 C 3,2 km/h (1 Bft) 98,00 %
12.07.2016 13:18 24,2 C 75 % 1010,7 hPa 0,0 l/m 2,9 km/h (1 Bft) SW 215 0 min 0,000 mm 3,3 UV-I 358 W/m 19,5 C 24,2 C 6,4 km/h (2 Bft) 98,00 %
12.07.2016 13:20 24,2 C 75 % 1010,7 hPa 0,0 l/m 4,3 km/h (1 Bft) W 266 0 min 0,000 mm 3,3 UV-I 377 W/m 19,5 C 24,2 C 12,9 km/h (3 Bft) 95,12 %
12.07.2016 13:22 24,1 C 74 % 1010,6 hPa 0,0 l/m 3,3 km/h (1 Bft) W 271 0 min 0,000 mm 3,4 UV-I 395 W/m 19,2 C 24,1 C 6,4 km/h (2 Bft) 97,56 %
12.07.2016 13:24 24,0 C 73 % 1010,6 hPa 0,0 l/m 5,0 km/h (1 Bft) W 272 0 min 0,000 mm 3,4 UV-I 386 W/m 18,9 C 24,0 C 11,3 km/h (2 Bft) 98,11 %
12.07.2016 13:26 23,9 C 72 % 1010,6 hPa 0,0 l/m 4,8 km/h (1 Bft) NW 315 0 min 0,000 mm 3,4 UV-I 402 W/m 18,5 C 23,9 C 9,7 km/h (2 Bft) 96,00 %
12.07.2016 13:28 23,9 C 74 % 1010,6 hPa 0,0 l/m 1,3 km/h (1 Bft) W 281 0 min 0,000 mm 3,2 UV-I 393 W/m 19,0 C 23,9 C 4,8 km/h (1 Bft) 98,00 %
12.07.2016 13:30 24,1 C 74 % 1010,5 hPa 0,0 l/m 3,0 km/h (1 Bft) S 180 0 min 0,000 mm 3,1 UV-I 368 W/m 19,2 C 24,1 C 4,8 km/h (1 Bft) 97,22 %
12.07.2016 13:32 24,1 C 73 % 1010,5 hPa 0,0 l/m 4,0 km/h (1 Bft) SW 218 0 min 0,000 mm 2,9 UV-I 348 W/m 18,9 C 24,1 C 8,0 km/h (2 Bft) 97,87 %
12.07.2016 13:34 24,1 C 75 % 1010,5 hPa 0,0 l/m 2,2 km/h (1 Bft) SW 225 0 min 0,000 mm 2,7 UV-I 339 W/m 19,4 C 24,1 C 6,4 km/h (2 Bft) 94,00 %
12.07.2016 13:36 24,1 C 75 % 1010,5 hPa 0,0 l/m 4,3 km/h (1 Bft) NW 306 0 min 0,000 mm 2,7 UV-I 341 W/m 19,4 C 24,1 C 8,0 km/h (2 Bft) 98,11 %
12.07.2016 13:38 24,0 C 74 % 1010,5 hPa 0,0 l/m 1,0 km/h (0 Bft) NW 316 0 min 0,000 mm 2,7 UV-I 337 W/m 19,1 C 24,0 C 4,8 km/h (1 Bft) 97,87 %
12.07.2016 13:40 24,0 C 74 % 1010,5 hPa 0,0 l/m 3,4 km/h (1 Bft) N 350 0 min 0,000 mm 2,6 UV-I 330 W/m 19,1 C 24,0 C 9,7 km/h (2 Bft) 97,37 %
12.07.2016 13:42 24,0 C 75 % 1010,4 hPa 0,0 l/m 2,4 km/h (1 Bft) N-NW 343 0 min 0,000 mm 2,5 UV-I 317 W/m 19,3 C 24,0 C 8,0 km/h (2 Bft) 98,11 %
12.07.2016 13:44 24,0 C 74 % 1010,5 hPa 0,0 l/m 4,0 km/h (1 Bft) W-SW 242 0 min 0,000 mm 2,3 UV-I 303 W/m 19,1 C 24,0 C 8,0 km/h (2 Bft) 100,00 %
12.07.2016 13:46 23,9 C 71 % 1010,5 hPa 0,0 l/m 1,7 km/h (1 Bft) W-SW 242 0 min 0,000 mm 2,2 UV-I 287 W/m 18,3 C 23,9 C 3,2 km/h (1 Bft) 100,00 %
12.07.2016 13:48 23,8 C 74 % 1010,6 hPa 0,0 l/m 2,5 km/h (1 Bft) W 260 0 min 0,000 mm 2,1 UV-I 267 W/m 18,9 C 23,8 C 4,8 km/h (1 Bft) 100,00 %
12.07.2016 13:50 23,7 C 73 % 1010,5 hPa 0,0 l/m 2,3 km/h (1 Bft) W 260 0 min 0,000 mm 1,9 UV-I 251 W/m 18,6 C 23,7 C 4,8 km/h (1 Bft) 96,15 %
12.07.2016 13:52 23,7 C 74 % 1010,6 hPa 0,0 l/m 2,1 km/h (1 Bft) W-NW 298 0 min 0,000 mm 1,8 UV-I 232 W/m 18,8 C 23,7 C 4,8 km/h (1 Bft) 100,00 %
12.07.2016 13:54 23,7 C 74 % 1010,5 hPa 0,0 l/m 2,4 km/h (1 Bft) W-NW 297 0 min 0,000 mm 1,5 UV-I 201 W/m 18,8 C 23,7 C 4,8 km/h (1 Bft) 98,18 %
12.07.2016 13:56 23,6 C 75 % 1010,6 hPa 0,0 l/m 3,2 km/h (1 Bft) N-NW 328 0 min 0,000 mm 1,3 UV-I 175 W/m 18,9 C 23,6 C 6,4 km/h (2 Bft) 100,00 %
12.07.2016 13:58 23,5 C 77 % 1010,5 hPa 0,0 l/m 1,6 km/h (1 Bft) N-NW 333 0 min 0,000 mm 1,2 UV-I 166 W/m 19,2 C 23,5 C 3,2 km/h (1 Bft) 98,00 %
12.07.2016 14:00 23,4 C 75 % 1010,6 hPa 0,0 l/m 1,0 km/h (0 Bft) N-NW 329 0 min 0,254 mm 1,2 UV-I 154 W/m 18,7 C 23,4 C 3,2 km/h (1 Bft) 100,00 %
12.07.2016 14:02 23,3 C 76 % 1010,6 hPa 0,0 l/m 3,4 km/h (1 Bft) NW 309 0 min 0,000 mm 1,1 UV-I 138 W/m 18,8 C 23,3 C 6,4 km/h (2 Bft) 100,00 %
12.07.2016 14:04 23,2 C 77 % 1010,5 hPa 0,0 l/m 3,2 km/h (1 Bft) N-NW 341 0 min 0,000 mm 0,9 UV-I 125 W/m 18,9 C 23,2 C 6,4 km/h (2 Bft) 98,21 %
12.07.2016 14:06 23,1 C 78 % 1010,6 hPa 0,0 l/m 3,1 km/h (1 Bft) NW 317 0 min 0,000 mm 0,9 UV-I 121 W/m 19,0 C 23,1 C 6,4 km/h (2 Bft) 100,00 %
12.07.2016 14:08 23,0 C 78 % 1010,4 hPa 0,0 l/m 2,9 km/h (1 Bft) N-NW 338 0 min 0,000 mm 0,8 UV-I 116 W/m 18,9 C 23,0 C 6,4 km/h (2 Bft) 100,00 %
12.07.2016 14:10 22,9 C 80 % 1010,5 hPa 0,0 l/m 0,9 km/h (0 Bft) N 360 0 min 0,000 mm 0,7 UV-I 101 W/m 19,3 C 22,9 C 3,2 km/h (1 Bft) 100,00 %
12.07.2016 14:12 22,9 C 78 % 1010,4 hPa 0,0 l/m 0,2 km/h (0 Bft) N 360 0 min 0,000 mm 0,6 UV-I 87 W/m 18,9 C 22,9 C 1,6 km/h (1 Bft) 97,37 %
12.07.2016 14:14 22,8 C 78 % 1010,4 hPa 0,0 l/m 0,2 km/h (0 Bft) N 360 0 min 0,000 mm 0,6 UV-I 76 W/m 18,8 C 22,8 C 1,6 km/h (1 Bft) 100,00 %
12.07.2016 14:16 22,8 C 82 % 1010,4 hPa 0,0 l/m 1,1 km/h (1 Bft) N 360 0 min 0,000 mm 0,4 UV-I 67 W/m 19,6 C 22,8 C 3,2 km/h (1 Bft) 100,00 %
12.07.2016 14:18 22,8 C 81 % 1010,4 hPa 0,0 l/m 0,5 km/h (0 Bft) N 360 0 min 0,000 mm 0,0 UV-I 61 W/m 19,4 C 22,8 C 1,6 km/h (1 Bft) 97,87 %
12.07.2016 14:20 22,7 C 80 % 1010,4 hPa 0,0 l/m 1,4 km/h (1 Bft) N-NW 329 0 min 0,000 mm 0,0 UV-I 53 W/m 19,1 C 22,7 C 3,2 km/h (1 Bft) 100,00 %
12.07.2016 14:22 22,7 C 81 % 1010,4 hPa 0,0 l/m 0,3 km/h (0 Bft) N-NW 329 0 min 0,000 mm 0,0 UV-I 47 W/m 19,3 C 22,7 C 1,6 km/h (1 Bft) 97,87 %
12.07.2016 14:24 22,6 C 81 % 1010,3 hPa 0,0 l/m 1,8 km/h (1 Bft) N-NW 328 0 min 0,000 mm 0,0 UV-I 40 W/m 19,2 C 22,6 C 4,8 km/h (1 Bft) 100,00 %
12.07.2016 14:26 22,6 C 81 % 1010,3 hPa 0,0 l/m 0,2 km/h (0 Bft) N-NW 328 0 min 0,000 mm 0,0 UV-I 37 W/m 19,2 C 22,6 C 1,6 km/h (1 Bft) 98,00 %
12.07.2016 14:28 22,4 C 83 % 1010,3 hPa 0,0 l/m 0,5 km/h (0 Bft) N-NW 328 0 min 0,000 mm 0,0 UV-I 33 W/m 19,4 C 22,4 C 1,6 km/h (1 Bft) 100,00 %
12.07.2016 14:30 22,4 C 82 % 1010,3 hPa 0,0 l/m 1,6 km/h (1 Bft) N-NW 327 0 min 0,000 mm 0,0 UV-I 29 W/m 19,2 C 22,4 C 3,2 km/h (1 Bft) 100,00 %
12.07.2016 14:32 22,3 C 83 % 1010,4 hPa 0,0 l/m 1,8 km/h (1 Bft) NW 326 0 min 0,000 mm 0,0 UV-I 25 W/m 19,3 C 22,3 C 3,2 km/h (1 Bft) 100,00 %
12.07.2016 14:34 22,3 C 83 % 1010,4 hPa 0,0 l/m 1,3 km/h (1 Bft) NW 326 0 min 0,000 mm 0,0 UV-I 23 W/m 19,3 C 22,3 C 3,2 km/h (1 Bft) 100,00 %
12.07.2016 14:36 22,3 C 84 % 1010,4 hPa 0,2 l/m 0,0 km/h (0 Bft) NW 326 0 min 0,000 mm 0,0 UV-I 23 W/m 19,5 C 22,3 C 1,6 km/h (1 Bft) 98,00 %
12.07.2016 14:38 22,2 C 83 % 1010,3 hPa 0,0 l/m 0,0 km/h (0 Bft) NW 326 0 min 0,000 mm 0,0 UV-I 24 W/m 19,2 C 22,2 C 1,6 km/h (1 Bft) 100,00 %
12.07.2016 14:40 22,2 C 85 % 1010,3 hPa 0,2 l/m 0,0 km/h (0 Bft) NW 326 0 min 0,000 mm 0,0 UV-I 26 W/m 19,6 C 22,2 C 0,0 km/h (0 Bft) 100,00 %
12.07.2016 14:42 22,1 C 85 % 1010,3 hPa 0,0 l/m 0,0 km/h (0 Bft) NW 326 0 min 0,000 mm 0,0 UV-I 29 W/m 19,5 C 22,1 C 0,0 km/h (0 Bft) 100,00 %
12.07.2016 14:44 22,1 C 85 % 1010,3 hPa 0,2 l/m 1,5 km/h (1 Bft) NW 326 0 min 0,000 mm 0,0 UV-I 31 W/m 19,5 C 22,1 C 3,2 km/h (1 Bft) 98,00 %
12.07.2016 14:46 21,9 C 89 % 1010,2 hPa 0,2 l/m 2,2 km/h (1 Bft) N 5 0 min 0,000 mm 0,0 UV-I 35 W/m 20,0 C 21,9 C 3,2 km/h (1 Bft) 100,00 %
12.07.2016 14:48 21,7 C 89 % 1010,1 hPa 0,2 l/m 1,9 km/h (1 Bft) N 5 0 min 0,000 mm 0,0 UV-I 41 W/m 19,8 C 21,7 C 3,2 km/h (1 Bft) 98,21 %
12.07.2016 14:50 21,4 C 90 % 1010,1 hPa 0,2 l/m 1,7 km/h (1 Bft) N 5 0 min 0,000 mm 0,0 UV-I 46 W/m 19,7 C 21,4 C 3,2 km/h (1 Bft) 100,00 %
12.07.2016 14:52 21,3 C 91 % 1009,9 hPa 0,2 l/m 2,2 km/h (1 Bft) N 5 0 min 0,000 mm 0,0 UV-I 54 W/m 19,8 C 21,3 C 3,2 km/h (1 Bft) 98,00 %
12.07.2016 14:54 21,3 C 91 % 1009,8 hPa 0,0 l/m 3,5 km/h (1 Bft) N-NO 18 0 min 0,000 mm 0,2 UV-I 64 W/m 19,8 C 21,3 C 4,8 km/h (1 Bft) 97,87 %
12.07.2016 14:56 21,2 C 92 % 1009,6 hPa 0,2 l/m 1,2 km/h (1 Bft) N-NO 19 0 min 0,000 mm 0,5 UV-I 73 W/m 19,8 C 21,2 C 3,2 km/h (1 Bft) 100,00 %
12.07.2016 14:58 21,2 C 93 % 1009,5 hPa 0,0 l/m 1,0 km/h (0 Bft) N-NO 13 0 min 0,000 mm 0,6 UV-I 85 W/m 20,0 C 21,2 C 1,6 km/h (1 Bft) 100,00 %
12.07.2016 15:00 21,1 C 92 % 1009,3 hPa 0,2 l/m 2,4 km/h (1 Bft) N-NW 343 0 min 0,051 mm 0,7 UV-I 105 W/m 19,7 C 21,1 C 6,4 km/h (2 Bft) 98,00 %
12.07.2016 15:02 21,0 C 92 % 1009,1 hPa 0,4 l/m 3,8 km/h (1 Bft) N-NO 22 0 min 0,000 mm 1,0 UV-I 131 W/m 19,6 C 21,0 C 8,0 km/h (2 Bft) 100,00 %
12.07.2016 15:04 20,9 C 92 % 1009,3 hPa 0,2 l/m 4,2 km/h (1 Bft) W-NW 297 0 min 0,000 mm 1,3 UV-I 165 W/m 19,5 C 20,9 C 8,0 km/h (2 Bft) 98,00 %
12.07.2016 15:06 20,8 C 92 % 1009,4 hPa 0,2 l/m 4,0 km/h (1 Bft) N-NW 328 0 min 0,000 mm 1,5 UV-I 201 W/m 19,4 C 20,8 C 8,0 km/h (2 Bft) 98,00 %
12.07.2016 15:08 20,9 C 92 % 1009,7 hPa 0,2 l/m 1,6 km/h (1 Bft) N-NW 330 0 min 0,000 mm 1,9 UV-I 232 W/m 19,5 C 20,9 C 3,2 km/h (1 Bft) 95,74 %
12.07.2016 15:10 21,0 C 91 % 1009,8 hPa 0,0 l/m 0,6 km/h (0 Bft) N-NW 330 0 min 0,000 mm 2,0 UV-I 253 W/m 19,5 C 21,0 C 1,6 km/h (1 Bft) 97,87 %
12.07.2016 15:12 21,1 C 92 % 1009,9 hPa 0,0 l/m 0,1 km/h (0 Bft) N-NW 330 0 min 0,000 mm 2,1 UV-I 255 W/m 19,7 C 21,1 C 1,6 km/h (1 Bft) 94,44 %
12.07.2016 15:14 21,2 C 91 % 1010,0 hPa 0,0 l/m 1,2 km/h (1 Bft) N-NW 330 0 min 0,000 mm 1,7 UV-I 212 W/m 19,7 C 21,2 C 3,2 km/h (1 Bft) 98,11 %
12.07.2016 15:16 21,3 C 91 % 1010,1 hPa 0,0 l/m 0,5 km/h (0 Bft) N-NW 330 0 min 0,000 mm 1,2 UV-I 139 W/m 19,8 C 21,3 C 3,2 km/h (1 Bft) 97,87 %
12.07.2016 15:18 21,3 C 90 % 1010,1 hPa 0,0 l/m 1,5 km/h (1 Bft) NW 311 0 min 0,000 mm 0,8 UV-I 103 W/m 19,6 C 21,3 C 3,2 km/h (1 Bft) 98,11 %
12.07.2016 15:20 21,3 C 90 % 1010,1 hPa 0,0 l/m 1,2 km/h (1 Bft) NW 311 0 min 0,000 mm 0,7 UV-I 95 W/m 19,6 C 21,3 C 3,2 km/h (1 Bft) 97,37 %
12.07.2016 15:22 21,4 C 91 % 1010,2 hPa 0,0 l/m 2,8 km/h (1 Bft) NW 311 0 min 0,000 mm 0,7 UV-I 97 W/m 19,9 C 21,4 C 4,8 km/h (1 Bft) 98,00 %
12.07.2016 15:24 21,3 C 90 % 1010,1 hPa 0,0 l/m 2,4 km/h (1 Bft) NW 309 0 min 0,000 mm 0,8 UV-I 105 W/m 19,6 C 21,3 C 4,8 km/h (1 Bft) 96,00 %
12.07.2016 15:26 21,3 C 91 % 1010,2 hPa 0,0 l/m 2,7 km/h (1 Bft) NW 304 0 min 0,000 mm 0,9 UV-I 119 W/m 19,8 C 21,3 C 4,8 km/h (1 Bft) 97,56 %
12.07.2016 15:28 21,3 C 92 % 1010,1 hPa 0,0 l/m 1,2 km/h (1 Bft) NW 304 0 min 0,000 mm 1,2 UV-I 149 W/m 19,9 C 21,3 C 3,2 km/h (1 Bft) 96,23 %
12.07.2016 15:30 21,3 C 92 % 1010,0 hPa 0,0 l/m 2,1 km/h (1 Bft) NW 325 0 min 0,000 mm 1,5 UV-I 196 W/m 19,9 C 21,3 C 4,8 km/h (1 Bft) 93,62 %
12.07.2016 15:32 21,3 C 93 % 1009,9 hPa 0,0 l/m 1,1 km/h (1 Bft) NW 325 0 min 0,000 mm 1,9 UV-I 246 W/m 20,1 C 21,3 C 3,2 km/h (1 Bft) 95,74 %
12.07.2016 15:34 21,3 C 92 % 1009,9 hPa 0,0 l/m 0,7 km/h (0 Bft) NW 325 0 min 0,000 mm 2,2 UV-I 288 W/m 19,9 C 21,3 C 3,2 km/h (1 Bft) 95,74 %
12.07.2016 15:36 21,4 C 93 % 1009,9 hPa 0,0 l/m 2,3 km/h (1 Bft) W-NW 302 0 min 0,000 mm 2,5 UV-I 318 W/m 20,2 C 21,4 C 4,8 km/h (1 Bft) 97,87 %
12.07.2016 15:38 21,6 C 93 % 1009,9 hPa 0,0 l/m 4,2 km/h (1 Bft) W-SW 257 0 min 0,000 mm 2,5 UV-I 345 W/m 20,4 C 21,6 C 6,4 km/h (2 Bft) 95,74 %
12.07.2016 15:40 21,7 C 93 % 1010,0 hPa 0,0 l/m 2,3 km/h (1 Bft) W-NW 299 0 min 0,000 mm 2,8 UV-I 395 W/m 20,5 C 21,7 C 4,8 km/h (1 Bft) 95,74 %
12.07.2016 15:42 21,8 C 92 % 1009,9 hPa 0,0 l/m 3,3 km/h (1 Bft) W 271 0 min 0,000 mm 3,1 UV-I 413 W/m 20,4 C 21,8 C 4,8 km/h (1 Bft) 100,00 %
12.07.2016 15:44 21,8 C 92 % 1009,9 hPa 0,0 l/m 3,8 km/h (1 Bft) W-SW 254 2 min 0,000 mm 3,9 UV-I 535 W/m 20,4 C 21,8 C 6,4 km/h (2 Bft) 93,75 %
12.07.2016 15:46 22,0 C 90 % 1009,8 hPa 0,0 l/m 3,5 km/h (1 Bft) W 262 2 min 0,000 mm 4,3 UV-I 693 W/m 20,3 C 22,0 C 9,7 km/h (2 Bft) 57,69 %
12.07.2016 15:48 22,1 C 91 % 1009,8 hPa 0,0 l/m 5,7 km/h (1 Bft) W-SW 246 2 min 0,000 mm 3,3 UV-I 613 W/m 20,6 C 22,1 C 9,7 km/h (2 Bft) 76,60 %
12.07.2016 15:50 22,1 C 88 % 1009,8 hPa 0,0 l/m 5,7 km/h (1 Bft) W 281 0 min 0,000 mm 2,9 UV-I 317 W/m 20,0 C 22,1 C 9,7 km/h (2 Bft) 79,17 %
12.07.2016 15:52 22,1 C 90 % 1009,8 hPa 0,0 l/m 3,5 km/h (1 Bft) W-NW 293 0 min 0,000 mm 2,7 UV-I 300 W/m 20,4 C 22,1 C 4,8 km/h (1 Bft) 70,00 %
12.07.2016 15:54 22,0 C 89 % 1009,7 hPa 0,0 l/m 5,4 km/h (1 Bft) W 277 0 min 0,000 mm 2,6 UV-I 312 W/m 20,1 C 22,0 C 9,7 km/h (2 Bft) 68,42 %
12.07.2016 15:56 22,0 C 88 % 1009,7 hPa 0,0 l/m 3,3 km/h (1 Bft) W-SW 252 0 min 0,000 mm 2,6 UV-I 330 W/m 19,9 C 22,0 C 6,4 km/h (2 Bft) 44,68 %
12.07.2016 15:58 21,9 C 88 % 1009,7 hPa 0,0 l/m 3,4 km/h (1 Bft) W 281 0 min 0,000 mm 2,6 UV-I 367 W/m 19,8 C 21,9 C 4,8 km/h (1 Bft) 40,43 %
12.07.2016 16:00 22,0 C 88 % 1009,6 hPa 0,0 l/m 2,6 km/h (1 Bft) W 259 0 min 0,000 mm 2,6 UV-I 394 W/m 19,9 C 22,0 C 3,2 km/h (1 Bft) 36,17 %
12.07.2016 16:02 22,1 C 89 % 1009,7 hPa 0,0 l/m 1,2 km/h (1 Bft) W 259 0 min 0,152 mm 3,0 UV-I 388 W/m 20,2 C 22,1 C 4,8 km/h (1 Bft) 36,17 %
12.07.2016 16:04 22,2 C 90 % 1009,7 hPa 0,0 l/m 4,2 km/h (1 Bft) W-SW 244 0 min 0,000 mm 3,4 UV-I 388 W/m 20,5 C 22,2 C 6,4 km/h (2 Bft) 38,30 %
12.07.2016 16:06 22,3 C 87 % 1009,6 hPa 0,0 l/m 3,3 km/h (1 Bft) W-SW 244 0 min 0,000 mm 3,3 UV-I 388 W/m 20,0 C 22,3 C 4,8 km/h (1 Bft) 28,00 %
12.07.2016 16:08 22,4 C 89 % 1009,6 hPa 0,0 l/m 2,3 km/h (1 Bft) W-SW 249 0 min 0,000 mm 3,4 UV-I 388 W/m 20,5 C 22,4 C 4,8 km/h (1 Bft) 42,00 %
12.07.2016 16:10 22,6 C 88 % 1009,6 hPa 0,0 l/m 3,7 km/h (1 Bft) W-SW 245 2 min 0,000 mm 3,0 UV-I 409 W/m 20,5 C 22,6 C 6,4 km/h (2 Bft) 48,94 %
12.07.2016 16:12 22,7 C 89 % 1009,5 hPa 0,0 l/m 3,4 km/h (1 Bft) W 271 2 min 0,000 mm 2,7 UV-I 554 W/m 20,8 C 22,7 C 6,4 km/h (2 Bft) 80,49 %
12.07.2016 16:14 22,6 C 87 % 1009,5 hPa 0,0 l/m 4,8 km/h (1 Bft) W-SW 257 2 min 0,000 mm 2,3 UV-I 385 W/m 20,3 C 22,6 C 8,0 km/h (2 Bft) 88,64 %
12.07.2016 16:16 22,4 C 87 % 1009,5 hPa 0,0 l/m 5,8 km/h (2 Bft) S-SW 203 0 min 0,000 mm 2,3 UV-I 300 W/m 20,1 C 22,4 C 8,0 km/h (2 Bft) 94,34 %
12.07.2016 16:18 22,4 C 87 % 1009,3 hPa 0,0 l/m 4,6 km/h (1 Bft) NW 311 2 min 0,000 mm 2,9 UV-I 419 W/m 20,1 C 22,4 C 8,0 km/h (2 Bft) 100,00 %
12.07.2016 16:20 22,4 C 86 % 1009,2 hPa 0,0 l/m 2,1 km/h (1 Bft) NW 308 2 min 0,000 mm 2,4 UV-I 435 W/m 19,9 C 22,4 C 4,8 km/h (1 Bft) 100,00 %
12.07.2016 16:22 22,6 C 87 % 1009,2 hPa 0,0 l/m 1,6 km/h (1 Bft) N-NW 332 0 min 0,000 mm 2,4 UV-I 352 W/m 20,3 C 22,6 C 4,8 km/h (1 Bft) 100,00 %
12.07.2016 16:24 22,8 C 87 % 1009,2 hPa 0,0 l/m 2,0 km/h (1 Bft) NW 306 2 min 0,000 mm 3,6 UV-I 499 W/m 20,5 C 22,8 C 4,8 km/h (1 Bft) 100,00 %
12.07.2016 16:26 23,0 C 86 % 1009,0 hPa 0,0 l/m 2,6 km/h (1 Bft) N 5 2 min 0,000 mm 3,7 UV-I 940 W/m 20,5 C 23,0 C 4,8 km/h (1 Bft) 100,00 %
12.07.2016 16:28 23,4 C 86 % 1008,9 hPa 0,0 l/m 2,8 km/h (1 Bft) N-NO 13 2 min 0,000 mm 4,0 UV-I 898 W/m 20,9 C 23,4 C 6,4 km/h (2 Bft) 100,00 %
12.07.2016 16:30 23,7 C 88 % 1008,8 hPa 0,0 l/m 3,5 km/h (1 Bft) N-NW 333 2 min 0,000 mm 3,5 UV-I 869 W/m 21,6 C 23,7 C 4,8 km/h (1 Bft) 100,00 %
12.07.2016 16:32 23,6 C 83 % 1008,8 hPa 0,0 l/m 4,3 km/h (1 Bft) W 273 2 min 0,000 mm 3,2 UV-I 567 W/m 20,5 C 23,6 C 8,0 km/h (2 Bft) 100,00 %
12.07.2016 16:34 23,4 C 84 % 1008,8 hPa 0,0 l/m 2,9 km/h (1 Bft) NW 315 0 min 0,000 mm 2,7 UV-I 310 W/m 20,5 C 23,4 C 9,7 km/h (2 Bft) 97,87 %
12.07.2016 16:36 23,4 C 83 % 1008,8 hPa 0,0 l/m 4,3 km/h (1 Bft) N 5 2 min 0,000 mm 3,1 UV-I 508 W/m 20,3 C 23,4 C 8,0 km/h (2 Bft) 100,00 %
12.07.2016 16:38 23,3 C 84 % 1008,8 hPa 0,0 l/m 4,5 km/h (1 Bft) N-NW 338 2 min 0,000 mm 2,9 UV-I 414 W/m 20,4 C 23,3 C 8,0 km/h (2 Bft) 100,00 %
12.07.2016 16:40 23,2 C 83 % 1008,8 hPa 0,0 l/m 3,0 km/h (1 Bft) W 269 2 min 0,000 mm 3,4 UV-I 576 W/m 20,1 C 23,2 C 9,7 km/h (2 Bft) 100,00 %
12.07.2016 16:42 23,1 C 84 % 1008,8 hPa 0,0 l/m 2,8 km/h (1 Bft) NW 311 2 min 0,000 mm 3,4 UV-I 696 W/m 20,2 C 23,1 C 4,8 km/h (1 Bft) 100,00 %
12.07.2016 16:44 23,2 C 84 % 1008,9 hPa 0,0 l/m 3,0 km/h (1 Bft) SW 234 2 min 0,000 mm 3,3 UV-I 675 W/m 20,3 C 23,2 C 6,4 km/h (2 Bft) 95,65 %
12.07.2016 16:46 23,2 C 84 % 1008,8 hPa 0,0 l/m 5,2 km/h (1 Bft) NW 308 2 min 0,000 mm 3,2 UV-I 661 W/m 20,3 C 23,2 C 12,9 km/h (3 Bft) 100,00 %
12.07.2016 16:48 23,3 C 83 % 1008,7 hPa 0,0 l/m 4,5 km/h (1 Bft) SW 235 2 min 0,000 mm 3,1 UV-I 631 W/m 20,2 C 23,3 C 11,3 km/h (2 Bft) 100,00 %
12.07.2016 16:50 23,3 C 84 % 1008,8 hPa 0,0 l/m 4,5 km/h (1 Bft) W-NW 299 2 min 0,000 mm 3,1 UV-I 616 W/m 20,4 C 23,3 C 11,3 km/h (2 Bft) 98,00 %
12.07.2016 16:52 23,3 C 81 % 1008,8 hPa 0,0 l/m 2,0 km/h (1 Bft) N 350 2 min 0,000 mm 3,0 UV-I 608 W/m 19,8 C 23,3 C 6,4 km/h (2 Bft) 100,00 %
12.07.2016 16:54 23,3 C 81 % 1008,8 hPa 0,0 l/m 1,9 km/h (1 Bft) N-NO 20 2 min 0,000 mm 2,8 UV-I 624 W/m 19,8 C 23,3 C 4,8 km/h (1 Bft) 98,21 %
12.07.2016 16:56 23,4 C 81 % 1008,8 hPa 0,0 l/m 3,3 km/h (1 Bft) N-NW 347 2 min 0,000 mm 2,9 UV-I 622 W/m 19,9 C 23,4 C 8,0 km/h (2 Bft) 100,00 %
12.07.2016 16:58 23,4 C 80 % 1008,7 hPa 0,0 l/m 6,0 km/h (2 Bft) N 355 2 min 0,000 mm 2,9 UV-I 608 W/m 19,7 C 23,4 C 11,3 km/h (2 Bft) 100,00 %
12.07.2016 17:00 23,4 C 79 % 1008,8 hPa 0,0 l/m 2,2 km/h (1 Bft) NW 315 2 min 0,356 mm 2,8 UV-I 594 W/m 19,5 C 23,4 C 6,4 km/h (2 Bft) 100,00 %
12.07.2016 17:02 23,4 C 80 % 1008,9 hPa 0,0 l/m 3,8 km/h (1 Bft) W-NW 303 2 min 0,000 mm 2,8 UV-I 597 W/m 19,7 C 23,4 C 8,0 km/h (2 Bft) 100,00 %
12.07.2016 17:04 23,4 C 80 % 1009,0 hPa 0,0 l/m 2,4 km/h (1 Bft) NW 309 2 min 0,000 mm 2,7 UV-I 502 W/m 19,7 C 23,4 C 4,8 km/h (1 Bft) 98,11 %
12.07.2016 17:06 23,4 C 78 % 1009,0 hPa 0,0 l/m 2,9 km/h (1 Bft) W-NW 302 0 min 0,000 mm 2,3 UV-I 195 W/m 19,3 C 23,4 C 6,4 km/h (2 Bft) 97,96 %
12.07.2016 17:08 23,4 C 79 % 1009,0 hPa 0,0 l/m 3,3 km/h (1 Bft) N-NW 344 2 min 0,000 mm 2,6 UV-I 480 W/m 19,5 C 23,4 C 9,7 km/h (2 Bft) 97,44 %
12.07.2016 17:10 23,4 C 80 % 1009,0 hPa 0,0 l/m 2,7 km/h (1 Bft) W-NW 292 2 min 0,000 mm 2,5 UV-I 560 W/m 19,7 C 23,4 C 6,4 km/h (2 Bft) 98,00 %
12.07.2016 17:12 23,5 C 80 % 1009,1 hPa 0,0 l/m 3,1 km/h (1 Bft) N 5 2 min 0,000 mm 2,3 UV-I 476 W/m 19,8 C 23,5 C 6,4 km/h (2 Bft) 97,56 %
12.07.2016 17:14 23,6 C 79 % 1009,2 hPa 0,0 l/m 3,5 km/h (1 Bft) W-NW 296 2 min 0,000 mm 2,3 UV-I 394 W/m 19,7 C 23,6 C 9,7 km/h (2 Bft) 94,64 %
12.07.2016 17:16 23,4 C 77 % 1009,2 hPa 0,0 l/m 4,0 km/h (1 Bft) W-NW 298 2 min 0,000 mm 2,2 UV-I 441 W/m 19,1 C 23,4 C 4,8 km/h (1 Bft) 97,87 %
12.07.2016 17:18 23,4 C 78 % 1009,2 hPa 0,0 l/m 2,3 km/h (1 Bft) W-NW 298 2 min 0,000 mm 2,1 UV-I 486 W/m 19,3 C 23,4 C 4,8 km/h (1 Bft) 95,74 %
12.07.2016 17:20 23,6 C 78 % 1009,2 hPa 0,0 l/m 0,7 km/h (0 Bft) NW 309 2 min 0,000 mm 2,2 UV-I 522 W/m 19,5 C 23,6 C 3,2 km/h (1 Bft) 96,00 %
12.07.2016 17:22 23,7 C 80 % 1009,2 hPa 0,0 l/m 0,9 km/h (0 Bft) NW 309 2 min 0,000 mm 2,2 UV-I 600 W/m 20,0 C 23,7 C 3,2 km/h (1 Bft) 97,87 %
12.07.2016 17:24 23,7 C 78 % 1009,3 hPa 0,0 l/m 2,3 km/h (1 Bft) W-NW 294 2 min 0,000 mm 1,7 UV-I 458 W/m 19,6 C 23,7 C 4,8 km/h (1 Bft) 95,12 %
12.07.2016 17:26 23,7 C 78 % 1009,3 hPa 0,0 l/m 0,8 km/h (0 Bft) NW 313 0 min 0,000 mm 1,4 UV-I 209 W/m 19,6 C 23,7 C 3,2 km/h (1 Bft) 98,00 %
12.07.2016 17:28 23,6 C 79 % 1009,3 hPa 0,0 l/m 2,3 km/h (1 Bft) NW 315 0 min 0,000 mm 1,2 UV-I 208 W/m 19,7 C 23,6 C 6,4 km/h (2 Bft) 95,74 %
12.07.2016 17:30 23,4 C 79 % 1009,2 hPa 0,0 l/m 1,4 km/h (1 Bft) NW 310 0 min 0,000 mm 1,1 UV-I 209 W/m 19,5 C 23,4 C 3,2 km/h (1 Bft) 97,14 %
12.07.2016 17:32 23,3 C 80 % 1009,2 hPa 0,0 l/m 2,0 km/h (1 Bft) N-NW 327 0 min 0,000 mm 1,1 UV-I 232 W/m 19,6 C 23,3 C 4,8 km/h (1 Bft) 92,98 %
12.07.2016 17:34 23,3 C 78 % 1009,2 hPa 0,0 l/m 0,8 km/h (0 Bft) N-NW 327 0 min 0,000 mm 1,1 UV-I 214 W/m 19,2 C 23,3 C 3,2 km/h (1 Bft) 97,87 %
12.07.2016 17:36 23,2 C 79 % 1009,3 hPa 0,0 l/m 0,9 km/h (0 Bft) N-NW 327 0 min 0,000 mm 0,9 UV-I 179 W/m 19,3 C 23,2 C 1,6 km/h (1 Bft) 100,00 %
12.07.2016 17:38 23,2 C 79 % 1009,2 hPa 0,0 l/m 1,2 km/h (1 Bft) N-NW 327 0 min 0,000 mm 0,8 UV-I 150 W/m 19,3 C 23,2 C 3,2 km/h (1 Bft) 100,00 %
12.07.2016 17:40 23,2 C 80 % 1009,3 hPa 0,0 l/m 2,3 km/h (1 Bft) N-NW 333 0 min 0,000 mm 0,7 UV-I 134 W/m 19,6 C 23,2 C 3,2 km/h (1 Bft) 100,00 %
12.07.2016 17:42 23,1 C 81 % 1009,2 hPa 0,0 l/m 2,3 km/h (1 Bft) N-NW 346 0 min 0,000 mm 0,6 UV-I 124 W/m 19,7 C 23,1 C 6,4 km/h (2 Bft) 98,18 %
12.07.2016 17:44 23,1 C 82 % 1009,2 hPa 0,0 l/m 0,7 km/h (0 Bft) N-NW 346 0 min 0,000 mm 0,6 UV-I 117 W/m 19,9 C 23,1 C 3,2 km/h (1 Bft) 97,44 %
12.07.2016 17:46 23,0 C 81 % 1009,2 hPa 0,0 l/m 1,7 km/h (1 Bft) N-NW 336 0 min 0,000 mm 0,5 UV-I 111 W/m 19,6 C 23,0 C 4,8 km/h (1 Bft) 100,00 %
12.07.2016 17:48 23,0 C 83 % 1009,2 hPa 0,0 l/m 0,7 km/h (0 Bft) N 5 0 min 0,000 mm 0,5 UV-I 106 W/m 20,0 C 23,0 C 3,2 km/h (1 Bft) 100,00 %
12.07.2016 17:50 22,9 C 83 % 1009,1 hPa 0,0 l/m 1,4 km/h (1 Bft) NW 326 0 min 0,000 mm 0,5 UV-I 106 W/m 19,9 C 22,9 C 3,2 km/h (1 Bft) 100,00 %
12.07.2016 17:52 22,8 C 83 % 1009,0 hPa 0,0 l/m 1,4 km/h (1 Bft) N-NW 328 0 min 0,000 mm 0,5 UV-I 110 W/m 19,8 C 22,8 C 3,2 km/h (1 Bft) 100,00 %
12.07.2016 17:54 22,8 C 84 % 1009,0 hPa 0,0 l/m 1,8 km/h (1 Bft) N 5 0 min 0,000 mm 0,5 UV-I 108 W/m 19,9 C 22,8 C 3,2 km/h (1 Bft) 100,00 %
12.07.2016 17:56 22,7 C 84 % 1008,9 hPa 0,0 l/m 2,3 km/h (1 Bft) N-NW 329 0 min 0,000 mm 0,5 UV-I 111 W/m 19,9 C 22,7 C 4,8 km/h (1 Bft) 98,11 %
12.07.2016 17:58 22,6 C 84 % 1008,8 hPa 0,0 l/m 1,3 km/h (1 Bft) N 360 0 min 0,000 mm 0,5 UV-I 121 W/m 19,8 C 22,6 C 3,2 km/h (1 Bft) 100,00 %
12.07.2016 18:00 22,6 C 84 % 1008,8 hPa 0,0 l/m 1,8 km/h (1 Bft) N-NW 344 0 min 0,178 mm 0,6 UV-I 130 W/m 19,8 C 22,6 C 4,8 km/h (1 Bft) 94,00 %
12.07.2016 18:02 22,5 C 85 % 1008,8 hPa 0,0 l/m 1,7 km/h (1 Bft) N 351 0 min 0,000 mm 0,6 UV-I 135 W/m 19,8 C 22,5 C 4,8 km/h (1 Bft) 100,00 %
12.07.2016 18:04 22,5 C 85 % 1008,8 hPa 0,0 l/m 1,6 km/h (1 Bft) N 9 0 min 0,000 mm 0,6 UV-I 137 W/m 19,8 C 22,5 C 4,8 km/h (1 Bft) 98,00 %
12.07.2016 18:06 22,4 C 85 % 1008,7 hPa 0,0 l/m 3,5 km/h (1 Bft) N 5 0 min 0,000 mm 0,6 UV-I 126 W/m 19,7 C 22,4 C 6,4 km/h (2 Bft) 100,00 %
12.07.2016 18:08 22,4 C 85 % 1008,7 hPa 0,0 l/m 3,1 km/h (1 Bft) N-NO 22 0 min 0,000 mm 0,6 UV-I 99 W/m 19,7 C 22,4 C 6,4 km/h (2 Bft) 100,00 %
12.07.2016 18:10 22,4 C 85 % 1008,7 hPa 0,0 l/m 2,1 km/h (1 Bft) N 355 0 min 0,000 mm 0,6 UV-I 89 W/m 19,7 C 22,4 C 6,4 km/h (2 Bft) 97,73 %
12.07.2016 18:12 22,3 C 84 % 1008,7 hPa 0,0 l/m 2,3 km/h (1 Bft) N-NW 330 0 min 0,000 mm 0,6 UV-I 87 W/m 19,5 C 22,3 C 4,8 km/h (1 Bft) 100,00 %
12.07.2016 18:14 22,3 C 84 % 1008,8 hPa 0,0 l/m 2,9 km/h (1 Bft) N-NW 336 0 min 0,000 mm 0,5 UV-I 82 W/m 19,5 C 22,3 C 4,8 km/h (1 Bft) 98,00 %
12.07.2016 18:16 22,3 C 84 % 1008,8 hPa 0,0 l/m 1,5 km/h (1 Bft) N 11 0 min 0,000 mm 0,4 UV-I 79 W/m 19,5 C 22,3 C 3,2 km/h (1 Bft) 97,73 %
12.07.2016 18:18 22,2 C 83 % 1008,7 hPa 0,0 l/m 2,2 km/h (1 Bft) N-NO 17 0 min 0,000 mm 0,0 UV-I 75 W/m 19,2 C 22,2 C 4,8 km/h (1 Bft) 100,00 %
12.07.2016 18:20 22,2 C 83 % 1008,7 hPa 0,0 l/m 1,6 km/h (1 Bft) N 5 0 min 0,000 mm 0,0 UV-I 60 W/m 19,2 C 22,2 C 3,2 km/h (1 Bft) 98,04 %
12.07.2016 18:22 22,2 C 83 % 1008,8 hPa 0,0 l/m 1,1 km/h (1 Bft) NW 326 0 min 0,000 mm 0,0 UV-I 48 W/m 19,2 C 22,2 C 3,2 km/h (1 Bft) 98,08 %
12.07.2016 18:24 22,1 C 84 % 1008,7 hPa 0,0 l/m 2,2 km/h (1 Bft) N 9 0 min 0,000 mm 0,0 UV-I 49 W/m 19,3 C 22,1 C 6,4 km/h (2 Bft) 100,00 %
12.07.2016 18:26 22,1 C 84 % 1008,6 hPa 0,0 l/m 1,1 km/h (1 Bft) N-NO 18 0 min 0,000 mm 0,0 UV-I 47 W/m 19,3 C 22,1 C 3,2 km/h (1 Bft) 100,00 %
12.07.2016 18:28 22,0 C 85 % 1008,6 hPa 0,0 l/m 0,8 km/h (0 Bft) N-NW 338 0 min 0,000 mm 0,0 UV-I 37 W/m 19,4 C 22,0 C 3,2 km/h (1 Bft) 97,14 %
12.07.2016 18:30 21,9 C 85 % 1008,5 hPa 0,0 l/m 0,5 km/h (0 Bft) N 355 0 min 0,000 mm 0,0 UV-I 24 W/m 19,3 C 21,9 C 3,2 km/h (1 Bft) 98,21 %
12.07.2016 18:32 21,9 C 85 % 1008,4 hPa 0,0 l/m 1,2 km/h (1 Bft) N 355 0 min 0,000 mm 0,0 UV-I 21 W/m 19,3 C 21,9 C 3,2 km/h (1 Bft) 100,00 %
12.07.2016 18:34 21,8 C 84 % 1008,3 hPa 0,0 l/m 2,7 km/h (1 Bft) N-NO 26 0 min 0,000 mm 0,0 UV-I 19 W/m 19,0 C 21,8 C 4,8 km/h (1 Bft) 97,87 %
12.07.2016 18:36 21,8 C 84 % 1008,2 hPa 0,0 l/m 2,6 km/h (1 Bft) N-NO 19 0 min 0,000 mm 0,0 UV-I 17 W/m 19,0 C 21,8 C 4,8 km/h (1 Bft) 100,00 %
12.07.2016 18:38 21,8 C 84 % 1008,1 hPa 0,0 l/m 2,7 km/h (1 Bft) N 9 0 min 0,000 mm 0,0 UV-I 15 W/m 19,0 C 21,8 C 6,4 km/h (2 Bft) 98,11 %
12.07.2016 18:40 21,7 C 84 % 1008,1 hPa 0,0 l/m 3,2 km/h (1 Bft) NO 51 0 min 0,000 mm 0,0 UV-I 15 W/m 18,9 C 21,7 C 9,7 km/h (2 Bft) 97,56 %
12.07.2016 18:42 21,7 C 84 % 1008,1 hPa 0,0 l/m 1,8 km/h (1 Bft) N 5 0 min 0,000 mm 0,0 UV-I 16 W/m 18,9 C 21,7 C 3,2 km/h (1 Bft) 100,00 %
12.07.2016 18:44 21,6 C 84 % 1008,2 hPa 0,0 l/m 1,7 km/h (1 Bft) N 5 0 min 0,000 mm 0,0 UV-I 16 W/m 18,8 C 21,6 C 3,2 km/h (1 Bft) 97,87 %
12.07.2016 18:46 21,6 C 83 % 1008,3 hPa 0,0 l/m 1,7 km/h (1 Bft) NW 316 0 min 0,000 mm 0,0 UV-I 14 W/m 18,6 C 21,6 C 4,8 km/h (1 Bft) 100,00 %
12.07.2016 18:48 21,6 C 83 % 1008,2 hPa 0,0 l/m 2,3 km/h (1 Bft) N 11 0 min 0,000 mm 0,0 UV-I 14 W/m 18,6 C 21,6 C 4,8 km/h (1 Bft) 100,00 %
12.07.2016 18:50 21,6 C 83 % 1008,0 hPa 0,0 l/m 1,9 km/h (1 Bft) N 350 0 min 0,000 mm 0,0 UV-I 16 W/m 18,6 C 21,6 C 4,8 km/h (1 Bft) 100,00 %
12.07.2016 18:52 21,5 C 84 % 1007,8 hPa 0,0 l/m 2,7 km/h (1 Bft) N-NO 28 0 min 0,000 mm 0,0 UV-I 19 W/m 18,7 C 21,5 C 6,4 km/h (2 Bft) 100,00 %
12.07.2016 18:54 21,4 C 84 % 1007,7 hPa 0,0 l/m 2,3 km/h (1 Bft) NW 325 0 min 0,000 mm 0,0 UV-I 21 W/m 18,6 C 21,4 C 4,8 km/h (1 Bft) 100,00 %
12.07.2016 18:56 21,4 C 84 % 1007,8 hPa 0,0 l/m 3,8 km/h (1 Bft) N-NW 334 0 min 0,000 mm 0,0 UV-I 20 W/m 18,6 C 21,4 C 8,0 km/h (2 Bft) 98,00 %
12.07.2016 18:58 21,4 C 82 % 1007,8 hPa 0,0 l/m 4,0 km/h (1 Bft) N-NW 333 0 min 0,000 mm 0,0 UV-I 17 W/m 18,2 C 21,4 C 6,4 km/h (2 Bft) 100,00 %
12.07.2016 19:00 21,3 C 82 % 1007,9 hPa 0,0 l/m 6,0 km/h (2 Bft) N-NW 336 0 min 0,025 mm 0,0 UV-I 13 W/m 18,1 C 21,3 C 12,9 km/h (3 Bft) 98,00 %
12.07.2016 19:02 21,3 C 82 % 1008,1 hPa 0,0 l/m 4,9 km/h (1 Bft) NW 306 0 min 0,000 mm 0,0 UV-I 9 W/m 18,1 C 21,3 C 11,3 km/h (2 Bft) 98,11 %
12.07.2016 19:04 21,3 C 81 % 1008,1 hPa 0,0 l/m 6,2 km/h (2 Bft) NW 319 0 min 0,000 mm 0,0 UV-I 7 W/m 17,9 C 21,3 C 11,3 km/h (2 Bft) 94,87 %
12.07.2016 19:06 21,3 C 81 % 1007,9 hPa 0,0 l/m 8,5 km/h (2 Bft) N 350 0 min 0,000 mm 0,0 UV-I 7 W/m 17,9 C 20,5 C 16,1 km/h (3 Bft) 98,11 %
12.07.2016 19:08 21,3 C 81 % 1007,8 hPa 0,0 l/m 5,7 km/h (1 Bft) NW 317 0 min 0,000 mm 0,0 UV-I 6 W/m 17,9 C 21,3 C 14,5 km/h (3 Bft) 98,00 %
12.07.2016 19:10 21,2 C 81 % 1007,8 hPa 0,0 l/m 7,4 km/h (2 Bft) NW 317 0 min 0,000 mm 0,0 UV-I 3 W/m 17,8 C 20,8 C 14,5 km/h (3 Bft) 97,37 %
12.07.2016 19:12 21,2 C 81 % 1007,8 hPa 0,0 l/m 5,6 km/h (1 Bft) N-NW 331 0 min 0,000 mm 0,0 UV-I 0 W/m 17,8 C 21,2 C 9,7 km/h (2 Bft) 96,08 %
12.07.2016 19:14 21,2 C 81 % 1007,7 hPa 0,0 l/m 6,3 km/h (2 Bft) NW 317 0 min 0,000 mm 0,0 UV-I 0 W/m 17,8 C 21,2 C 14,5 km/h (3 Bft) 95,74 %
12.07.2016 19:16 21,1 C 81 % 1007,7 hPa 0,0 l/m 7,5 km/h (2 Bft) N 355 0 min 0,000 mm 0,0 UV-I 0 W/m 17,7 C 20,7 C 16,1 km/h (3 Bft) 97,37 %
12.07.2016 19:18 21,1 C 81 % 1007,8 hPa 0,0 l/m 5,1 km/h (1 Bft) W 269 0 min 0,000 mm 0,0 UV-I 0 W/m 17,7 C 21,1 C 9,7 km/h (2 Bft) 98,11 %
12.07.2016 19:20 21,1 C 83 % 1007,8 hPa 0,0 l/m 3,6 km/h (1 Bft) W-SW 257 0 min 0,000 mm 0,0 UV-I 0 W/m 18,1 C 21,1 C 6,4 km/h (2 Bft) 98,00 %
12.07.2016 19:22 21,0 C 84 % 1007,9 hPa 0,0 l/m 3,7 km/h (1 Bft) S-SO 160 0 min 0,000 mm 0,0 UV-I 0 W/m 18,2 C 21,0 C 6,4 km/h (2 Bft) 98,00 %
12.07.2016 19:24 20,9 C 85 % 1008,1 hPa 0,2 l/m 7,5 km/h (2 Bft) SW 223 0 min 0,000 mm 0,0 UV-I 0 W/m 18,3 C 20,5 C 14,5 km/h (3 Bft) 97,37 %
12.07.2016 19:26 20,8 C 87 % 1008,5 hPa 0,2 l/m 11,3 km/h (2 Bft) W-SW 248 0 min 0,000 mm 0,0 UV-I 0 W/m 18,6 C 19,1 C 14,5 km/h (3 Bft) 98,21 %
12.07.2016 19:28 20,6 C 87 % 1008,9 hPa 0,2 l/m 16,7 km/h (3 Bft) W-SW 244 0 min 0,000 mm 0,0 UV-I 0 W/m 18,4 C 17,6 C 22,5 km/h (4 Bft) 94,74 %
12.07.2016 19:30 20,6 C 89 % 1009,2 hPa 0,4 l/m 15,4 km/h (3 Bft) W 265 0 min 0,000 mm 0,0 UV-I 0 W/m 18,7 C 17,9 C 24,1 km/h (4 Bft) 93,33 %
12.07.2016 19:32 20,5 C 90 % 1009,4 hPa 0,4 l/m 14,7 km/h (3 Bft) W-SW 253 0 min 0,000 mm 0,0 UV-I 0 W/m 18,8 C 17,9 C 22,5 km/h (4 Bft) 97,56 %
12.07.2016 19:34 20,4 C 91 % 1009,4 hPa 1,2 l/m 18,3 km/h (3 Bft) W-SW 254 0 min 0,000 mm 0,0 UV-I 0 W/m 18,9 C 17,0 C 25,7 km/h (4 Bft) 98,11 %
12.07.2016 19:36 20,3 C 91 % 1009,7 hPa 1,8 l/m 18,6 km/h (3 Bft) W 259 0 min 0,000 mm 0,0 UV-I 0 W/m 18,8 C 16,9 C 35,4 km/h (5 Bft) 100,00 %
12.07.2016 19:38 20,0 C 90 % 1009,7 hPa 1,2 l/m 24,7 km/h (4 Bft) W-SW 258 0 min 0,000 mm 0,0 UV-I 0 W/m 18,3 C 15,4 C 40,2 km/h (6 Bft) 100,00 %
12.07.2016 19:40 19,7 C 90 % 1009,7 hPa 1,2 l/m 23,0 km/h (4 Bft) W-SW 253 0 min 0,000 mm 0,0 UV-I 0 W/m 18,0 C 15,3 C 43,5 km/h (6 Bft) 98,28 %
12.07.2016 19:42 19,4 C 90 % 1009,3 hPa 1,0 l/m 21,4 km/h (4 Bft) W-NW 296 0 min 0,000 mm 0,0 UV-I 0 W/m 17,7 C 15,2 C 33,8 km/h (5 Bft) 97,44 %
12.07.2016 19:44 19,1 C 91 % 1009,3 hPa 1,0 l/m 20,7 km/h (4 Bft) SW 236 0 min 0,000 mm 0,0 UV-I 0 W/m 17,6 C 14,9 C 32,2 km/h (5 Bft) 100,00 %
12.07.2016 19:46 18,9 C 91 % 1009,5 hPa 1,0 l/m 20,0 km/h (4 Bft) W-SW 238 0 min 0,000 mm 0,0 UV-I 0 W/m 17,4 C 14,8 C 38,6 km/h (5 Bft) 100,00 %
12.07.2016 19:48 18,7 C 92 % 1009,6 hPa 0,6 l/m 16,3 km/h (3 Bft) W-SW 240 0 min 0,000 mm 0,0 UV-I 0 W/m 17,4 C 15,3 C 29,0 km/h (5 Bft) 97,56 %
12.07.2016 19:50 18,6 C 92 % 1009,6 hPa 1,4 l/m 19,7 km/h (3 Bft) W 277 0 min 0,000 mm 0,0 UV-I 0 W/m 17,3 C 14,5 C 29,0 km/h (5 Bft) 100,00 %
12.07.2016 19:52 18,4 C 93 % 1009,7 hPa 1,0 l/m 10,4 km/h (2 Bft) S-SW 193 0 min 0,000 mm 0,0 UV-I 0 W/m 17,2 C 16,7 C 24,1 km/h (4 Bft) 100,00 %
12.07.2016 19:54 18,3 C 93 % 1009,7 hPa 1,0 l/m 15,0 km/h (3 Bft) W-SW 248 0 min 0,000 mm 0,0 UV-I 0 W/m 17,1 C 15,2 C 25,7 km/h (4 Bft) 100,00 %
12.07.2016 19:56 18,2 C 94 % 1009,7 hPa 0,4 l/m 12,7 km/h (3 Bft) W-SW 249 0 min 0,000 mm 0,0 UV-I 0 W/m 17,2 C 15,7 C 20,9 km/h (4 Bft) 100,00 %
12.07.2016 19:58 18,2 C 94 % 1009,9 hPa 0,2 l/m 9,1 km/h (2 Bft) SW 223 0 min 0,000 mm 0,0 UV-I 0 W/m 17,2 C 17,0 C 24,1 km/h (4 Bft) 100,00 %
12.07.2016 20:00 18,1 C 94 % 1010,0 hPa 0,2 l/m 13,2 km/h (3 Bft) W-NW 291 0 min 0,025 mm 0,0 UV-I 3 W/m 17,1 C 15,5 C 25,7 km/h (4 Bft) 98,00 %
12.07.2016 20:02 18,1 C 94 % 1010,2 hPa 0,0 l/m 17,0 km/h (3 Bft) S-SW 212 0 min 0,000 mm 0,0 UV-I 5 W/m 17,1 C 14,4 C 27,4 km/h (4 Bft) 97,73 %
12.07.2016 20:04 18,1 C 94 % 1010,4 hPa 0,2 l/m 12,4 km/h (3 Bft) W-SW 238 0 min 0,000 mm 0,0 UV-I 5 W/m 17,1 C 15,7 C 19,3 km/h (3 Bft) 98,11 %
12.07.2016 20:06 18,1 C 95 % 1010,5 hPa 0,0 l/m 12,5 km/h (3 Bft) W 263 0 min 0,000 mm 0,0 UV-I 6 W/m 17,3 C 15,7 C 19,3 km/h (3 Bft) 100,00 %
12.07.2016 20:08 18,1 C 95 % 1010,7 hPa 0,0 l/m 12,9 km/h (3 Bft) SW 233 0 min 0,000 mm 0,0 UV-I 7 W/m 17,3 C 15,6 C 20,9 km/h (4 Bft) 100,00 %
12.07.2016 20:10 18,1 C 95 % 1010,7 hPa 0,2 l/m 17,7 km/h (3 Bft) W-SW 238 0 min 0,000 mm 0,0 UV-I 7 W/m 17,3 C 14,3 C 24,1 km/h (4 Bft) 98,00 %
12.07.2016 20:12 18,1 C 95 % 1010,9 hPa 0,0 l/m 15,8 km/h (3 Bft) W-SW 248 0 min 0,000 mm 0,0 UV-I 7 W/m 17,3 C 14,7 C 22,5 km/h (4 Bft) 100,00 %
12.07.2016 20:14 18,1 C 95 % 1010,9 hPa 0,0 l/m 11,1 km/h (2 Bft) W-SW 248 0 min 0,000 mm 0,0 UV-I 7 W/m 17,3 C 16,1 C 16,1 km/h (3 Bft) 100,00 %
12.07.2016 20:16 18,1 C 95 % 1011,1 hPa 0,0 l/m 16,1 km/h (3 Bft) W-SW 256 0 min 0,000 mm 0,0 UV-I 7 W/m 17,3 C 14,7 C 25,7 km/h (4 Bft) 100,00 %
12.07.2016 20:18 18,1 C 95 % 1011,2 hPa 0,0 l/m 16,1 km/h (3 Bft) W-SW 239 0 min 0,000 mm 0,0 UV-I 7 W/m 17,3 C 14,7 C 20,9 km/h (4 Bft) 100,00 %
12.07.2016 20:20 18,1 C 95 % 1011,4 hPa 0,0 l/m 17,6 km/h (3 Bft) S-SW 208 0 min 0,000 mm 0,0 UV-I 7 W/m 17,3 C 14,3 C 29,0 km/h (5 Bft) 100,00 %
12.07.2016 20:22 18,1 C 95 % 1011,4 hPa 0,0 l/m 14,2 km/h (3 Bft) W 259 0 min 0,000 mm 0,0 UV-I 5 W/m 17,3 C 15,2 C 19,3 km/h (3 Bft) 100,00 %
12.07.2016 20:28 18,0 C 95 % 1011,5 hPa 0,0 l/m 16,6 km/h (3 Bft) W-SW 254 0 min 0,000 mm 0,0 UV-I 0 W/m 17,2 C 14,4 C 24,1 km/h (4 Bft) 99,30 %
12.07.2016 20:30 18,0 C 95 % 1011,4 hPa 0,0 l/m 16,5 km/h (3 Bft) W-SW 242 0 min 0,000 mm 0,0 UV-I 0 W/m 17,2 C 14,4 C 27,4 km/h (4 Bft) 100,00 %
12.07.2016 20:32 18,0 C 95 % 1011,5 hPa 0,2 l/m 17,0 km/h (3 Bft) W 277 0 min 0,000 mm 0,0 UV-I 0 W/m 17,2 C 14,3 C 27,4 km/h (4 Bft) 100,00 %
12.07.2016 20:34 18,0 C 95 % 1011,6 hPa 0,0 l/m 13,8 km/h (3 Bft) W-SW 253 0 min 0,000 mm 0,0 UV-I 0 W/m 17,2 C 15,2 C 22,5 km/h (4 Bft) 100,00 %
12.07.2016 20:36 18,0 C 95 % 1011,7 hPa 0,0 l/m 18,9 km/h (3 Bft) W-SW 257 0 min 0,000 mm 0,0 UV-I 0 W/m 17,2 C 13,9 C 25,7 km/h (4 Bft) 100,00 %
12.07.2016 20:38 18,0 C 95 % 1011,8 hPa 0,0 l/m 16,9 km/h (3 Bft) W 265 0 min 0,000 mm 0,0 UV-I 0 W/m 17,2 C 14,3 C 25,7 km/h (4 Bft) 100,00 %
12.07.2016 20:40 18,0 C 95 % 1011,8 hPa 0,0 l/m 17,7 km/h (3 Bft) W 265 0 min 0,000 mm 0,0 UV-I 0 W/m 17,2 C 14,1 C 25,7 km/h (4 Bft) 100,00 %
12.07.2016 20:42 18,0 C 95 % 1011,8 hPa 0,0 l/m 19,1 km/h (3 Bft) SW 225 0 min 0,000 mm 0,0 UV-I 0 W/m 17,2 C 13,8 C 32,2 km/h (5 Bft) 100,00 %
12.07.2016 20:44 18,0 C 95 % 1011,8 hPa 0,0 l/m 15,1 km/h (3 Bft) W-SW 239 0 min 0,000 mm 0,0 UV-I 0 W/m 17,2 C 14,8 C 22,5 km/h (4 Bft) 100,00 %
12.07.2016 20:46 18,0 C 95 % 1011,8 hPa 0,2 l/m 14,4 km/h (3 Bft) W-SW 250 0 min 0,000 mm 0,0 UV-I 0 W/m 17,2 C 15,0 C 19,3 km/h (3 Bft) 100,00 %
12.07.2016 20:48 18,0 C 95 % 1011,8 hPa 0,2 l/m 12,5 km/h (3 Bft) W 266 0 min 0,000 mm 0,0 UV-I 0 W/m 17,2 C 15,6 C 17,7 km/h (3 Bft) 100,00 %
12.07.2016 20:50 18,0 C 95 % 1011,8 hPa 0,0 l/m 11,6 km/h (2 Bft) SW 236 0 min 0,000 mm 0,0 UV-I 0 W/m 17,2 C 15,9 C 16,1 km/h (3 Bft) 98,11 %
12.07.2016 20:52 18,0 C 95 % 1011,7 hPa 0,4 l/m 10,2 km/h (2 Bft) W 273 0 min 0,000 mm 0,0 UV-I 0 W/m 17,2 C 16,4 C 14,5 km/h (3 Bft) 100,00 %
12.07.2016 20:54 17,9 C 95 % 1011,6 hPa 0,2 l/m 6,4 km/h (2 Bft) W-NW 290 0 min 0,000 mm 0,0 UV-I 0 W/m 17,1 C 17,9 C 12,9 km/h (3 Bft) 98,57 %
12.07.2016 20:56 17,9 C 95 % 1011,5 hPa 0,4 l/m 4,0 km/h (1 Bft) W-SW 258 0 min 0,000 mm 0,0 UV-I 0 W/m 17,1 C 17,9 C 6,4 km/h (2 Bft) 100,00 %
12.07.2016 20:58 17,9 C 95 % 1011,6 hPa 0,2 l/m 5,5 km/h (1 Bft) W-SW 244 0 min 0,000 mm 0,0 UV-I 0 W/m 17,1 C 17,9 C 9,7 km/h (2 Bft) 98,00 %
12.07.2016 21:00 17,9 C 95 % 1011,7 hPa 0,2 l/m 6,4 km/h (2 Bft) W-SW 254 0 min 0,000 mm 0,0 UV-I 0 W/m 17,1 C 17,9 C 12,9 km/h (3 Bft) 100,00 %
12.07.2016 21:02 17,9 C 95 % 1011,8 hPa 0,2 l/m 7,8 km/h (2 Bft) W-SW 247 0 min 0,000 mm 0,0 UV-I 0 W/m 17,1 C 17,2 C 11,3 km/h (2 Bft) 96,61 %
12.07.2016 21:04 17,8 C 95 % 1011,9 hPa 0,4 l/m 7,6 km/h (2 Bft) SW 217 0 min 0,000 mm 0,0 UV-I 0 W/m 17,0 C 17,2 C 11,3 km/h (2 Bft) 97,56 %
12.07.2016 21:06 17,8 C 95 % 1011,9 hPa 0,2 l/m 8,8 km/h (2 Bft) W-SW 246 0 min 0,000 mm 0,0 UV-I 0 W/m 17,0 C 16,7 C 14,5 km/h (3 Bft) 98,00 %
12.07.2016 21:08 17,8 C 95 % 1011,8 hPa 0,0 l/m 8,5 km/h (2 Bft) W-SW 245 0 min 0,000 mm 0,0 UV-I 0 W/m 17,0 C 16,8 C 12,9 km/h (3 Bft) 97,56 %
12.07.2016 21:10 17,8 C 95 % 1011,7 hPa 0,0 l/m 6,8 km/h (2 Bft) S-SO 168 0 min 0,000 mm 0,0 UV-I 0 W/m 17,0 C 17,6 C 11,3 km/h (2 Bft) 98,00 %
12.07.2016 21:12 17,7 C 95 % 1011,7 hPa 0,0 l/m 8,7 km/h (2 Bft) SW 217 0 min 0,000 mm 0,0 UV-I 0 W/m 16,9 C 16,6 C 16,1 km/h (3 Bft) 97,87 %
12.07.2016 21:14 17,7 C 95 % 1011,7 hPa 0,2 l/m 6,8 km/h (2 Bft) SW 231 0 min 0,000 mm 0,0 UV-I 0 W/m 16,9 C 17,5 C 12,9 km/h (3 Bft) 96,00 %
12.07.2016 21:16 17,7 C 95 % 1011,7 hPa 0,0 l/m 7,0 km/h (2 Bft) SW 231 0 min 0,000 mm 0,0 UV-I 0 W/m 16,9 C 17,4 C 11,3 km/h (2 Bft) 97,37 %
12.07.2016 21:18 17,7 C 96 % 1011,8 hPa 0,0 l/m 7,5 km/h (2 Bft) W-SW 238 0 min 0,000 mm 0,0 UV-I 0 W/m 17,1 C 17,2 C 12,9 km/h (3 Bft) 98,00 %
12.07.2016 21:20 17,7 C 95 % 1011,8 hPa 0,0 l/m 7,3 km/h (2 Bft) W-SW 248 0 min 0,000 mm 0,0 UV-I 0 W/m 16,9 C 17,3 C 11,3 km/h (2 Bft) 97,73 %
12.07.2016 21:22 17,7 C 96 % 1011,8 hPa 0,0 l/m 5,4 km/h (1 Bft) SW 235 0 min 0,000 mm 0,0 UV-I 0 W/m 17,1 C 17,7 C 8,0 km/h (2 Bft) 97,56 %
12.07.2016 21:28 17,7 C 96 % 1011,8 hPa 0,0 l/m 6,0 km/h (2 Bft) SW 219 0 min 0,000 mm 0,0 UV-I 0 W/m 17,1 C 17,7 C 8,0 km/h (2 Bft) 97,40 %
12.07.2016 21:30 17,6 C 96 % 1011,8 hPa 0,0 l/m 5,2 km/h (1 Bft) SW 225 0 min 0,000 mm 0,0 UV-I 0 W/m 17,0 C 17,6 C 8,0 km/h (2 Bft) 97,37 %
12.07.2016 21:32 17,7 C 96 % 1011,8 hPa 0,0 l/m 6,4 km/h (2 Bft) SW 221 0 min 0,000 mm 0,0 UV-I 0 W/m 17,1 C 17,7 C 8,0 km/h (2 Bft) 96,61 %
12.07.2016 21:34 17,7 C 96 % 1011,8 hPa 0,0 l/m 6,0 km/h (2 Bft) SW 219 0 min 0,000 mm 0,0 UV-I 0 W/m 17,1 C 17,7 C 9,7 km/h (2 Bft) 100,00 %
12.07.2016 21:36 17,7 C 96 % 1011,9 hPa 0,0 l/m 5,4 km/h (1 Bft) W-SW 248 0 min 0,000 mm 0,0 UV-I 0 W/m 17,1 C 17,7 C 8,0 km/h (2 Bft) 95,56 %
12.07.2016 21:38 17,7 C 96 % 1011,9 hPa 0,0 l/m 4,8 km/h (1 Bft) SW 231 0 min 0,000 mm 0,0 UV-I 0 W/m 17,1 C 17,7 C 9,7 km/h (2 Bft) 98,00 %
12.07.2016 21:40 17,7 C 96 % 1012,0 hPa 0,0 l/m 6,5 km/h (2 Bft) W-SW 242 0 min 0,000 mm 0,0 UV-I 0 W/m 17,1 C 17,7 C 9,7 km/h (2 Bft) 100,00 %
12.07.2016 21:42 17,7 C 96 % 1012,0 hPa 0,0 l/m 5,1 km/h (1 Bft) SW 217 0 min 0,000 mm 0,0 UV-I 0 W/m 17,1 C 17,7 C 8,0 km/h (2 Bft) 100,00 %
12.07.2016 21:44 17,7 C 96 % 1012,0 hPa 0,0 l/m 4,4 km/h (1 Bft) SW 232 0 min 0,000 mm 0,0 UV-I 0 W/m 17,1 C 17,7 C 8,0 km/h (2 Bft) 98,00 %
12.07.2016 21:46 17,7 C 96 % 1011,9 hPa 0,0 l/m 4,8 km/h (1 Bft) SW 229 0 min 0,000 mm 0,0 UV-I 0 W/m 17,1 C 17,7 C 9,7 km/h (2 Bft) 97,87 %
12.07.2016 21:48 17,7 C 96 % 1011,9 hPa 0,0 l/m 4,8 km/h (1 Bft) W 267 0 min 0,000 mm 0,0 UV-I 0 W/m 17,1 C 17,7 C 8,0 km/h (2 Bft) 100,00 %
12.07.2016 21:50 17,7 C 96 % 1011,8 hPa 0,0 l/m 3,7 km/h (1 Bft) W-SW 244 0 min 0,000 mm 0,0 UV-I 0 W/m 17,1 C 17,7 C 6,4 km/h (2 Bft) 97,87 %
12.07.2016 21:52 17,7 C 96 % 1011,8 hPa 0,0 l/m 4,3 km/h (1 Bft) SW 223 0 min 0,000 mm 0,0 UV-I 0 W/m 17,1 C 17,7 C 6,4 km/h (2 Bft) 100,00 %
12.07.2016 21:54 17,7 C 96 % 1011,7 hPa 0,0 l/m 4,1 km/h (1 Bft) SW 228 0 min 0,000 mm 0,0 UV-I 0 W/m 17,1 C 17,7 C 6,4 km/h (2 Bft) 100,00 %
12.07.2016 21:56 17,7 C 96 % 1011,8 hPa 0,0 l/m 6,0 km/h (2 Bft) S-SW 202 0 min 0,000 mm 0,0 UV-I 0 W/m 17,1 C 17,7 C 9,7 km/h (2 Bft) 100,00 %
12.07.2016 21:58 17,6 C 96 % 1011,9 hPa 0,0 l/m 7,6 km/h (2 Bft) SW 219 0 min 0,000 mm 0,0 UV-I 0 W/m 17,0 C 17,0 C 12,9 km/h (3 Bft) 100,00 %
12.07.2016 22:00 17,6 C 96 % 1012,0 hPa 0,0 l/m 7,3 km/h (2 Bft) SW 217 0 min 0,000 mm 0,0 UV-I 0 W/m 17,0 C 17,2 C 12,9 km/h (3 Bft) 100,00 %
12.07.2016 22:02 17,6 C 96 % 1011,9 hPa 0,0 l/m 8,1 km/h (2 Bft) W-SW 244 0 min 0,000 mm 0,0 UV-I 0 W/m 17,0 C 16,8 C 12,9 km/h (3 Bft) 98,21 %
12.07.2016 22:04 17,6 C 96 % 1011,9 hPa 0,0 l/m 8,5 km/h (2 Bft) W-SW 239 0 min 0,000 mm 0,0 UV-I 0 W/m 17,0 C 16,6 C 11,3 km/h (2 Bft) 100,00 %
12.07.2016 22:06 17,6 C 96 % 1011,9 hPa 0,0 l/m 8,6 km/h (2 Bft) SW 222 0 min 0,000 mm 0,0 UV-I 0 W/m 17,0 C 16,6 C 12,9 km/h (3 Bft) 100,00 %
12.07.2016 22:08 17,6 C 96 % 1011,9 hPa 0,0 l/m 8,2 km/h (2 Bft) SW 218 0 min 0,000 mm 0,0 UV-I 0 W/m 17,0 C 16,7 C 11,3 km/h (2 Bft) 97,87 %
12.07.2016 22:10 17,5 C 96 % 1011,9 hPa 0,0 l/m 8,8 km/h (2 Bft) SW 223 0 min 0,000 mm 0,0 UV-I 0 W/m 16,9 C 16,4 C 12,9 km/h (3 Bft) 100,00 %
12.07.2016 22:12 17,5 C 96 % 1012,0 hPa 0,0 l/m 8,1 km/h (2 Bft) S-SW 199 0 min 0,000 mm 0,0 UV-I 0 W/m 16,9 C 16,7 C 14,5 km/h (3 Bft) 100,00 %
12.07.2016 22:14 17,4 C 96 % 1012,0 hPa 0,0 l/m 8,7 km/h (2 Bft) S 190 0 min 0,000 mm 0,0 UV-I 0 W/m 16,8 C 16,3 C 12,9 km/h (3 Bft) 100,00 %
12.07.2016 22:16 17,4 C 96 % 1012,1 hPa 0,0 l/m 7,6 km/h (2 Bft) S 191 0 min 0,000 mm 0,0 UV-I 0 W/m 16,8 C 16,8 C 14,5 km/h (3 Bft) 100,00 %
12.07.2016 22:18 17,4 C 96 % 1012,1 hPa 0,0 l/m 6,2 km/h (2 Bft) S-SW 203 0 min 0,000 mm 0,0 UV-I 0 W/m 16,8 C 17,4 C 9,7 km/h (2 Bft) 97,37 %
12.07.2016 22:20 17,5 C 96 % 1012,0 hPa 0,0 l/m 5,5 km/h (1 Bft) W-SW 242 0 min 0,000 mm 0,0 UV-I 0 W/m 16,9 C 17,5 C 8,0 km/h (2 Bft) 100,00 %
12.07.2016 22:22 17,5 C 96 % 1012,0 hPa 0,0 l/m 6,9 km/h (2 Bft) SW 236 0 min 0,000 mm 0,0 UV-I 0 W/m 16,9 C 17,3 C 11,3 km/h (2 Bft) 100,00 %
12.07.2016 22:24 17,6 C 96 % 1012,0 hPa 0,0 l/m 6,3 km/h (2 Bft) W-SW 247 0 min 0,000 mm 0,0 UV-I 0 W/m 17,0 C 17,6 C 8,0 km/h (2 Bft) 100,00 %
12.07.2016 22:26 17,6 C 96 % 1012,1 hPa 0,0 l/m 7,0 km/h (2 Bft) SW 232 0 min 0,000 mm 0,0 UV-I 0 W/m 17,0 C 17,3 C 9,7 km/h (2 Bft) 98,00 %
12.07.2016 22:28 17,6 C 96 % 1012,1 hPa 0,0 l/m 7,4 km/h (2 Bft) SW 230 0 min 0,000 mm 0,0 UV-I 0 W/m 17,0 C 17,1 C 11,3 km/h (2 Bft) 100,00 %
12.07.2016 22:30 17,6 C 96 % 1012,1 hPa 0,0 l/m 5,9 km/h (2 Bft) W-SW 237 0 min 0,000 mm 0,0 UV-I 0 W/m 17,0 C 17,6 C 9,7 km/h (2 Bft) 96,43 %
12.07.2016 22:32 17,6 C 96 % 1012,1 hPa 0,0 l/m 5,9 km/h (2 Bft) SW 219 0 min 0,000 mm 0,0 UV-I 0 W/m 17,0 C 17,6 C 8,0 km/h (2 Bft) 100,00 %
12.07.2016 22:34 17,6 C 96 % 1012,1 hPa 0,0 l/m 5,9 km/h (2 Bft) S-SW 211 0 min 0,000 mm 0,0 UV-I 0 W/m 17,0 C 17,6 C 8,0 km/h (2 Bft) 98,11 %
12.07.2016 22:36 17,6 C 96 % 1012,0 hPa 0,0 l/m 6,1 km/h (2 Bft) SW 231 0 min 0,000 mm 0,0 UV-I 0 W/m 17,0 C 17,6 C 8,0 km/h (2 Bft) 100,00 %
12.07.2016 22:38 17,6 C 96 % 1012,0 hPa 0,0 l/m 5,5 km/h (1 Bft) SW 227 0 min 0,000 mm 0,0 UV-I 0 W/m 17,0 C 17,6 C 8,0 km/h (2 Bft) 100,00 %
12.07.2016 22:40 17,6 C 96 % 1012,1 hPa 0,0 l/m 8,4 km/h (2 Bft) W-SW 240 0 min 0,000 mm 0,0 UV-I 0 W/m 17,0 C 16,7 C 12,9 km/h (3 Bft) 100,00 %
12.07.2016 22:42 17,6 C 96 % 1012,1 hPa 0,0 l/m 6,6 km/h (2 Bft) SW 220 0 min 0,000 mm 0,0 UV-I 0 W/m 17,0 C 17,5 C 11,3 km/h (2 Bft) 100,00 %
12.07.2016 22:44 17,6 C 96 % 1012,0 hPa 0,0 l/m 6,8 km/h (2 Bft) W-SW 247 0 min 0,000 mm 0,0 UV-I 0 W/m 17,0 C 17,4 C 11,3 km/h (2 Bft) 100,00 %
12.07.2016 22:46 17,7 C 96 % 1011,9 hPa 0,0 l/m 6,7 km/h (2 Bft) W-SW 243 0 min 0,000 mm 0,0 UV-I 0 W/m 17,1 C 17,6 C 11,3 km/h (2 Bft) 100,00 %
12.07.2016 22:48 17,7 C 96 % 1011,9 hPa 0,0 l/m 6,9 km/h (2 Bft) W-SW 243 0 min 0,000 mm 0,0 UV-I 0 W/m 17,1 C 17,5 C 12,9 km/h (3 Bft) 100,00 %
12.07.2016 22:50 17,7 C 96 % 1011,9 hPa 0,0 l/m 6,6 km/h (2 Bft) S-SW 205 0 min 0,000 mm 0,0 UV-I 0 W/m 17,1 C 17,6 C 11,3 km/h (2 Bft) 100,00 %
12.07.2016 22:52 17,7 C 96 % 1011,9 hPa 0,0 l/m 7,7 km/h (2 Bft) SW 227 0 min 0,000 mm 0,0 UV-I 0 W/m 17,1 C 17,1 C 14,5 km/h (3 Bft) 100,00 %
12.07.2016 22:54 17,7 C 96 % 1011,8 hPa 0,0 l/m 7,5 km/h (2 Bft) SW 231 0 min 0,000 mm 0,0 UV-I 0 W/m 17,1 C 17,2 C 11,3 km/h (2 Bft) 100,00 %
12.07.2016 22:56 17,7 C 96 % 1011,8 hPa 0,0 l/m 7,2 km/h (2 Bft) SW 219 0 min 0,000 mm 0,0 UV-I 0 W/m 17,1 C 17,3 C 9,7 km/h (2 Bft) 100,00 %
12.07.2016 22:58 17,7 C 96 % 1011,9 hPa 0,0 l/m 7,6 km/h (2 Bft) SW 234 0 min 0,000 mm 0,0 UV-I 0 W/m 17,1 C 17,1 C 9,7 km/h (2 Bft) 100,00 %
12.07.2016 23:00 17,7 C 96 % 1012,0 hPa 0,0 l/m 7,5 km/h (2 Bft) S 188 0 min 0,000 mm 0,0 UV-I 0 W/m 17,1 C 17,2 C 11,3 km/h (2 Bft) 94,74 %
12.07.2016 23:02 17,7 C 96 % 1011,9 hPa 0,0 l/m 6,5 km/h (2 Bft) W-SW 242 0 min 0,000 mm 0,0 UV-I 0 W/m 17,1 C 17,7 C 9,7 km/h (2 Bft) 94,92 %
12.07.2016 23:04 17,7 C 96 % 1011,9 hPa 0,0 l/m 7,5 km/h (2 Bft) SW 236 0 min 0,000 mm 0,0 UV-I 0 W/m 17,1 C 17,2 C 11,3 km/h (2 Bft) 95,65 %
12.07.2016 23:06 17,7 C 96 % 1011,9 hPa 0,0 l/m 7,5 km/h (2 Bft) S-SW 205 0 min 0,000 mm 0,0 UV-I 0 W/m 17,1 C 17,2 C 12,9 km/h (3 Bft) 97,37 %
12.07.2016 23:08 17,7 C 96 % 1011,9 hPa 0,0 l/m 7,2 km/h (2 Bft) SW 226 0 min 0,000 mm 0,0 UV-I 0 W/m 17,1 C 17,3 C 11,3 km/h (2 Bft) 98,00 %
12.07.2016 23:10 17,7 C 96 % 1011,9 hPa 0,0 l/m 7,7 km/h (2 Bft) S-SW 201 0 min 0,000 mm 0,0 UV-I 0 W/m 17,1 C 17,1 C 11,3 km/h (2 Bft) 97,87 %
12.07.2016 23:12 17,7 C 96 % 1011,9 hPa 0,0 l/m 7,3 km/h (2 Bft) SW 230 0 min 0,000 mm 0,0 UV-I 0 W/m 17,1 C 17,3 C 11,3 km/h (2 Bft) 98,00 %
12.07.2016 23:14 17,7 C 96 % 1011,9 hPa 0,0 l/m 7,4 km/h (2 Bft) SW 218 0 min 0,000 mm 0,0 UV-I 0 W/m 17,1 C 17,2 C 11,3 km/h (2 Bft) 97,73 %
12.07.2016 23:16 17,7 C 96 % 1012,0 hPa 0,0 l/m 8,7 km/h (2 Bft) SW 224 0 min 0,000 mm 0,0 UV-I 0 W/m 17,1 C 16,6 C 12,9 km/h (3 Bft) 96,23 %
12.07.2016 23:18 17,7 C 96 % 1012,0 hPa 0,0 l/m 7,4 km/h (2 Bft) SW 219 0 min 0,000 mm 0,0 UV-I 0 W/m 17,1 C 17,2 C 11,3 km/h (2 Bft) 97,87 %
12.07.2016 23:20 17,7 C 96 % 1012,0 hPa 0,0 l/m 6,4 km/h (2 Bft) SW 217 0 min 0,000 mm 0,0 UV-I 0 W/m 17,1 C 17,7 C 9,7 km/h (2 Bft) 97,87 %
12.07.2016 23:22 17,7 C 96 % 1011,9 hPa 0,0 l/m 6,9 km/h (2 Bft) SW 235 0 min 0,000 mm 0,0 UV-I 0 W/m 17,1 C 17,5 C 9,7 km/h (2 Bft) 97,87 %
12.07.2016 23:24 17,7 C 96 % 1011,9 hPa 0,0 l/m 7,0 km/h (2 Bft) SW 218 0 min 0,000 mm 0,0 UV-I 0 W/m 17,1 C 17,4 C 9,7 km/h (2 Bft) 97,37 %
12.07.2016 23:26 17,7 C 96 % 1011,9 hPa 0,0 l/m 6,0 km/h (2 Bft) SW 219 0 min 0,000 mm 0,0 UV-I 0 W/m 17,1 C 17,7 C 9,7 km/h (2 Bft) 98,00 %
12.07.2016 23:28 17,7 C 96 % 1011,9 hPa 0,0 l/m 5,1 km/h (1 Bft) S-SW 204 0 min 0,000 mm 0,0 UV-I 0 W/m 17,1 C 17,7 C 9,7 km/h (2 Bft) 95,12 %
12.07.2016 23:30 17,7 C 96 % 1012,0 hPa 0,0 l/m 5,8 km/h (2 Bft) SW 224 0 min 0,000 mm 0,0 UV-I 0 W/m 17,1 C 17,7 C 8,0 km/h (2 Bft) 94,00 %
12.07.2016 23:32 17,7 C 96 % 1012,0 hPa 0,0 l/m 6,7 km/h (2 Bft) SW 229 0 min 0,000 mm 0,0 UV-I 0 W/m 17,1 C 17,6 C 11,3 km/h (2 Bft) 94,64 %
12.07.2016 23:34 17,7 C 96 % 1012,2 hPa 0,0 l/m 5,8 km/h (2 Bft) SW 215 0 min 0,000 mm 0,0 UV-I 0 W/m 17,1 C 17,7 C 8,0 km/h (2 Bft) 100,00 %
12.07.2016 23:36 17,7 C 96 % 1012,2 hPa 0,0 l/m 5,3 km/h (1 Bft) SW 225 0 min 0,000 mm 0,0 UV-I 0 W/m 17,1 C 17,7 C 8,0 km/h (2 Bft) 100,00 %
12.07.2016 23:38 17,7 C 96 % 1012,2 hPa 0,0 l/m 6,3 km/h (2 Bft) SW 231 0 min 0,000 mm 0,0 UV-I 0 W/m 17,1 C 17,7 C 9,7 km/h (2 Bft) 100,00 %
12.07.2016 23:40 17,7 C 96 % 1012,1 hPa 0,0 l/m 5,4 km/h (1 Bft) W-SW 240 0 min 0,000 mm 0,0 UV-I 0 W/m 17,1 C 17,7 C 9,7 km/h (2 Bft) 100,00 %
12.07.2016 23:42 17,7 C 96 % 1012,1 hPa 0,0 l/m 6,3 km/h (2 Bft) W 271 0 min 0,000 mm 0,0 UV-I 0 W/m 17,1 C 17,7 C 8,0 km/h (2 Bft) 98,11 %
12.07.2016 23:44 17,8 C 96 % 1012,2 hPa 0,0 l/m 6,4 km/h (2 Bft) W 264 0 min 0,000 mm 0,0 UV-I 0 W/m 17,2 C 17,8 C 11,3 km/h (2 Bft) 100,00 %
12.07.2016 23:46 17,7 C 96 % 1012,2 hPa 0,0 l/m 6,0 km/h (2 Bft) W-SW 249 0 min 0,000 mm 0,0 UV-I 0 W/m 17,1 C 17,7 C 11,3 km/h (2 Bft) 100,00 %
12.07.2016 23:48 17,7 C 96 % 1012,2 hPa 0,0 l/m 5,8 km/h (2 Bft) W-SW 257 0 min 0,000 mm 0,0 UV-I 0 W/m 17,1 C 17,7 C 9,7 km/h (2 Bft) 97,73 %
12.07.2016 23:50 17,7 C 96 % 1012,3 hPa 0,0 l/m 8,7 km/h (2 Bft) SW 221 0 min 0,000 mm 0,0 UV-I 0 W/m 17,1 C 16,6 C 12,9 km/h (3 Bft) 100,00 %
12.07.2016 23:52 17,7 C 96 % 1012,2 hPa 0,4 l/m 12,2 km/h (2 Bft) W 259 0 min 0,000 mm 0,0 UV-I 0 W/m 17,1 C 15,3 C 19,3 km/h (3 Bft) 100,00 %
12.07.2016 23:54 17,7 C 96 % 1012,3 hPa 0,8 l/m 11,0 km/h (2 Bft) W-SW 247 0 min 0,000 mm 0,0 UV-I 0 W/m 17,1 C 15,7 C 16,1 km/h (3 Bft) 100,00 %
12.07.2016 23:56 17,6 C 96 % 1012,2 hPa 0,4 l/m 14,3 km/h (3 Bft) SW 236 0 min 0,000 mm 0,0 UV-I 0 W/m 17,0 C 14,5 C 20,9 km/h (4 Bft) 100,00 %
12.07.2016 23:58 17,6 C 96 % 1012,2 hPa 0,4 l/m 13,1 km/h (3 Bft) W-SW 242 0 min 0,000 mm 0,0 UV-I 0 W/m 17,0 C 14,9 C 20,9 km/h (4 Bft) 100,00 %
_ Min-Zeit 22:14 13:06 18:54 - 00:02 - - - - - - 22:14 20:42 00:02 16:06
Minimum _ 17,4 C 70 % 1007,7 hPa - 0,0 km/h (0 Bft) - - - - - - 16,8 C 13,8 C 0,0 km/h (0 Bft) 28,00 %
_ Max-Zeit 13:06 05:26 00:02 19:36 19:38 - - 06:54 13:00 12:08 12:08 16:30 13:06 19:40 00:00
Maximum _ 25,1 C 98 % 1012,5 hPa 1,8 l/m 24,7 km/h
W-SW (4 Bft)
- - 2 min 0,356 mm 7,9 UV-I 1234 W/m 21,6 C 25,1 C 43,5 km/h
W-SW (6 Bft)
100,00 %
Durchschnitt _ 20,7 C 90 % 1010,9 hPa #28,4 l/m 4,1 km/h (1 Bft) SW - #3:44 h #2,438 mm 2,6 UV-I 271 W/m 18,9 C 20,4 C 7,3 km/h (2 Bft) 97,79 %